Time,TemperatureF,DewpointF,PressureIn,WindDirection,WindDirectionDegrees,WindSpeedMPH,WindSpeedGustMPH,Humidity,HourlyPrecipIn,Conditions,Clouds,dailyrainin,SoftwareType,DateUTC
2013-04-19 00:01:00,52.5,49.7,30.00,ESE,121,4.0,5.0,90,0.00,,,0.00,Wunderground v.1.15,2013-04-19 04:01:00,
2013-04-19 00:02:00,52.5,49.9,30.00,WNW,300,2.0,5.0,91,0.00,,,0.00,Wunderground v.1.15,2013-04-19 04:02:00,
2013-04-19 00:03:00,52.6,50.0,30.00,South,189,2.0,5.0,91,0.00,,,0.00,Wunderground v.1.15,2013-04-19 04:03:00,
2013-04-19 00:07:00,52.8,50.2,30.00,SSW,210,6.0,10.0,91,0.00,,,0.00,Wunderground v.1.15,2013-04-19 04:07:00,
2013-04-19 00:08:00,52.8,50.2,30.00,SW,228,4.0,10.0,91,0.00,,,0.00,Wunderground v.1.15,2013-04-19 04:08:00,
2013-04-19 00:10:00,53.0,50.4,29.99,West,261,5.0,6.0,91,0.00,,,0.00,Wunderground v.1.15,2013-04-19 04:10:00,
2013-04-19 00:12:00,53.0,50.4,29.99,NNW,336,2.0,6.0,91,0.00,,,0.00,Wunderground v.1.15,2013-04-19 04:12:00,
2013-04-19 00:14:00,53.0,50.4,29.99,WNW,294,5.0,6.0,91,0.00,,,0.00,Wunderground v.1.15,2013-04-19 04:14:00,
2013-04-19 00:16:00,53.1,50.5,29.99,NE,34,7.0,7.0,91,0.00,,,0.00,Wunderground v.1.15,2013-04-19 04:16:00,
2013-04-19 00:17:00,53.1,50.5,29.99,SSW,209,6.0,7.0,91,0.00,,,0.00,Wunderground v.1.15,2013-04-19 04:17:00,
2013-04-19 00:21:00,53.3,50.7,29.99,NNE,29,3.0,7.0,91,0.00,,,0.00,Wunderground v.1.15,2013-04-19 04:21:00,
2013-04-19 00:22:00,53.3,50.7,29.99,South,170,11.0,11.0,91,0.00,,,0.00,Wunderground v.1.15,2013-04-19 04:22:00,
2013-04-19 00:23:00,53.4,50.8,29.99,SSW,213,6.0,11.0,91,0.00,,,0.00,Wunderground v.1.15,2013-04-19 04:23:00,
2013-04-19 00:28:00,53.6,51.0,29.98,East,92,3.0,11.0,91,0.00,,,0.00,Wunderground v.1.15,2013-04-19 04:28:00,
2013-04-19 00:30:00,53.7,51.1,29.99,SSW,206,3.0,4.0,91,0.00,,,0.00,Wunderground v.1.15,2013-04-19 04:30:00,
2013-04-19 00:31:00,53.8,51.2,29.99,South,178,5.0,5.0,91,0.00,,,0.00,Wunderground v.1.15,2013-04-19 04:31:00,
2013-04-19 00:32:00,53.8,51.2,29.99,SW,225,9.0,9.0,91,0.00,,,0.00,Wunderground v.1.15,2013-04-19 04:32:00,
2013-04-19 00:33:00,53.9,51.3,29.98,SE,139,2.0,9.0,91,0.00,,,0.00,Wunderground v.1.15,2013-04-19 04:33:00,
2013-04-19 00:36:00,54.1,51.5,29.98,SE,125,1.0,9.0,91,0.00,,,0.00,Wunderground v.1.15,2013-04-19 04:36:00,
2013-04-19 00:38:00,54.2,51.6,29.98,West,270,4.0,9.0,91,0.00,,,0.00,Wunderground v.1.15,2013-04-19 04:38:00,
2013-04-19 00:42:00,54.4,51.8,29.98,SE,136,2.0,7.0,91,0.00,,,0.00,Wunderground v.1.15,2013-04-19 04:42:00,
2013-04-19 00:44:00,54.5,51.9,29.99,South,182,5.0,7.0,91,0.00,,,0.00,Wunderground v.1.15,2013-04-19 04:44:00,
2013-04-19 00:46:00,54.5,51.6,29.99,SW,234,4.0,7.0,90,0.00,,,0.00,Wunderground v.1.15,2013-04-19 04:46:00,
2013-04-19 00:47:00,54.6,51.7,29.99,WNW,290,7.0,7.0,90,0.00,,,0.00,Wunderground v.1.15,2013-04-19 04:47:00,
2013-04-19 00:48:00,54.6,51.7,29.98,East,88,6.0,7.0,90,0.00,,,0.00,Wunderground v.1.15,2013-04-19 04:48:00,
2013-04-19 00:51:00,54.6,51.7,29.99,SSE,153,9.0,9.0,90,0.00,,,0.00,Wunderground v.1.15,2013-04-19 04:51:00,
2013-04-19 00:53:00,54.6,51.7,29.99,NNW,331,2.0,9.0,90,0.00,,,0.00,Wunderground v.1.15,2013-04-19 04:53:00,
2013-04-19 00:54:00,54.7,51.8,29.99,SSE,155,8.0,9.0,90,0.00,,,0.00,Wunderground v.1.15,2013-04-19 04:54:00,
2013-04-19 00:56:00,54.7,51.8,29.99,East,101,5.0,9.0,90,0.00,,,0.00,Wunderground v.1.15,2013-04-19 04:56:00,
2013-04-19 00:59:00,54.7,51.8,29.99,SSW,213,4.0,4.0,90,0.00,,,0.00,Wunderground v.1.15,2013-04-19 04:59:00,
2013-04-19 01:00:00,54.7,51.8,29.99,WNW,292,5.0,5.0,90,0.00,,,0.00,Wunderground v.1.15,2013-04-19 05:00:00,
2013-04-19 01:01:00,54.8,51.9,29.99,SW,220,5.0,5.0,90,0.00,,,0.00,Wunderground v.1.15,2013-04-19 05:01:00,
2013-04-19 01:05:00,54.8,51.9,29.99,NE,52,2.0,5.0,90,0.00,,,0.00,Wunderground v.1.15,2013-04-19 05:05:00,
2013-04-19 01:06:00,54.8,51.9,29.99,SW,216,3.0,5.0,90,0.00,,,0.00,Wunderground v.1.15,2013-04-19 05:06:00,
2013-04-19 01:07:00,54.9,52.0,29.99,SSW,196,2.0,5.0,90,0.00,,,0.00,Wunderground v.1.15,2013-04-19 05:07:00,
2013-04-19 01:10:00,54.8,51.9,29.99,WSW,257,5.0,5.0,90,0.00,,,0.00,Wunderground v.1.15,2013-04-19 05:10:00,
2013-04-19 01:11:00,54.9,52.0,29.99,ESE,112,4.0,5.0,90,0.00,,,0.00,Wunderground v.1.15,2013-04-19 05:11:00,
2013-04-19 01:13:00,54.8,51.9,29.99,West,261,4.0,5.0,90,0.00,,,0.00,Wunderground v.1.15,2013-04-19 05:13:00,
2013-04-19 01:15:00,54.8,51.9,29.99,SW,234,7.0,7.0,90,0.00,,,0.00,Wunderground v.1.15,2013-04-19 05:15:00,
2013-04-19 01:17:00,54.8,51.9,29.99,West,279,2.0,7.0,90,0.00,,,0.00,Wunderground v.1.15,2013-04-19 05:17:00,
2013-04-19 01:18:00,54.8,51.9,29.99,ESE,123,8.0,8.0,90,0.00,,,0.00,Wunderground v.1.15,2013-04-19 05:18:00,
2013-04-19 01:19:00,54.8,51.9,29.99,WSW,254,2.0,4.0,90,0.00,,,0.00,Wunderground v.1.15,2013-04-19 05:19:00,
2013-04-19 01:21:00,54.8,51.9,29.99,West,265,4.0,5.0,90,0.00,,,0.00,Wunderground v.1.15,2013-04-19 05:21:00,
2013-04-19 01:24:00,54.8,51.9,29.99,NW,315,3.0,5.0,90,0.00,,,0.00,Wunderground v.1.15,2013-04-19 05:24:00,
2013-04-19 01:26:00,54.7,51.8,29.98,WSW,246,2.0,5.0,90,0.00,,,0.00,Wunderground v.1.15,2013-04-19 05:26:00,
2013-04-19 01:29:00,54.7,51.8,29.98,WSW,243,2.0,4.0,90,0.00,,,0.00,Wunderground v.1.15,2013-04-19 05:29:00,
2013-04-19 01:30:00,54.7,51.8,29.99,South,189,3.0,4.0,90,0.00,,,0.00,Wunderground v.1.15,2013-04-19 05:30:00,
2013-04-19 01:32:00,54.6,52.0,29.99,NW,321,6.0,7.0,91,0.00,,,0.00,Wunderground v.1.15,2013-04-19 05:32:00,
2013-04-19 01:33:00,54.6,52.0,29.99,WSW,257,3.0,7.0,91,0.00,,,0.00,Wunderground v.1.15,2013-04-19 05:33:00,
2013-04-19 01:34:00,54.6,52.0,29.99,SSW,207,4.0,7.0,91,0.00,,,0.00,Wunderground v.1.15,2013-04-19 05:34:00,
2013-04-19 01:36:00,54.6,52.0,29.99,West,259,7.0,7.0,91,0.00,,,0.00,Wunderground v.1.15,2013-04-19 05:36:00,
2013-04-19 01:39:00,54.6,52.0,29.99,West,263,1.0,5.0,91,0.00,,,0.00,Wunderground v.1.15,2013-04-19 05:39:00,
2013-04-19 01:40:00,54.6,52.0,29.99,North,355,2.0,5.0,91,0.00,,,0.00,Wunderground v.1.15,2013-04-19 05:40:00,
2013-04-19 01:41:00,54.6,52.0,29.99,West,260,4.0,5.0,91,0.00,,,0.00,Wunderground v.1.15,2013-04-19 05:41:00,
2013-04-19 01:43:00,54.5,51.9,29.99,SW,234,4.0,5.0,91,0.00,,,0.00,Wunderground v.1.15,2013-04-19 05:43:00,
2013-04-19 01:46:00,54.4,51.8,29.99,WNW,288,3.0,5.0,91,0.00,,,0.00,Wunderground v.1.15,2013-04-19 05:46:00,
2013-04-19 01:47:00,54.4,51.8,29.99,SW,232,2.0,5.0,91,0.00,,,0.00,Wunderground v.1.15,2013-04-19 05:47:00,
2013-04-19 01:48:00,54.4,51.8,29.99,WNW,294,3.0,5.0,91,0.00,,,0.00,Wunderground v.1.15,2013-04-19 05:48:00,
2013-04-19 01:49:00,54.4,51.8,29.99,SSW,211,3.0,4.0,91,0.00,,,0.00,Wunderground v.1.15,2013-04-19 05:49:00,
2013-04-19 01:52:00,54.3,51.7,29.99,SW,234,3.0,4.0,91,0.00,,,0.00,Wunderground v.1.15,2013-04-19 05:52:00,
2013-04-19 01:54:00,54.3,51.7,29.99,NW,325,3.0,4.0,91,0.00,,,0.00,Wunderground v.1.15,2013-04-19 05:54:00,
2013-04-19 01:57:00,54.2,51.9,29.99,WNW,300,4.0,4.0,92,0.00,,,0.00,Wunderground v.1.15,2013-04-19 05:57:00,
2013-04-19 01:58:00,54.2,51.9,29.99,SW,220,2.0,4.0,92,0.00,,,0.00,Wunderground v.1.15,2013-04-19 05:58:00,
2013-04-19 01:59:00,54.1,51.8,29.98,SE,127,3.0,3.0,92,0.00,,,0.00,Wunderground v.1.15,2013-04-19 05:59:00,
2013-04-19 02:00:00,54.2,51.9,29.98,SW,235,5.0,8.0,92,0.00,,,0.00,Wunderground v.1.15,2013-04-19 06:00:00,
2013-04-19 02:02:00,54.1,51.8,29.98,SW,234,6.0,8.0,92,0.00,,,0.00,Wunderground v.1.15,2013-04-19 06:02:00,
2013-04-19 02:04:00,54.1,51.8,29.98,East,96,5.0,8.0,92,0.00,,,0.00,Wunderground v.1.15,2013-04-19 06:04:00,
2013-04-19 02:05:00,54.0,51.7,29.98,SSW,198,3.0,8.0,92,0.00,,,0.00,Wunderground v.1.15,2013-04-19 06:05:00,
2013-04-19 02:07:00,54.0,51.7,29.98,East,98,5.0,8.0,92,0.00,,,0.00,Wunderground v.1.15,2013-04-19 06:07:00,
2013-04-19 02:08:00,54.0,51.7,29.98,West,270,5.0,8.0,92,0.00,,,0.00,Wunderground v.1.15,2013-04-19 06:08:00,
2013-04-19 02:09:00,54.0,51.7,29.98,West,266,6.0,9.0,92,0.00,,,0.00,Wunderground v.1.15,2013-04-19 06:09:00,
2013-04-19 02:11:00,54.0,52.0,29.98,West,266,11.0,11.0,93,0.00,,,0.00,Wunderground v.1.15,2013-04-19 06:11:00,
2013-04-19 02:13:00,53.9,51.9,29.98,NE,49,4.0,11.0,93,0.00,,,0.00,Wunderground v.1.15,2013-04-19 06:13:00,
2013-04-19 02:14:00,53.9,51.9,29.98,WSW,239,6.0,11.0,93,0.00,,,0.00,Wunderground v.1.15,2013-04-19 06:14:00,
2013-04-19 02:15:00,53.9,51.9,29.98,SE,139,4.0,11.0,93,0.00,,,0.00,Wunderground v.1.15,2013-04-19 06:15:00,
2013-04-19 02:18:00,53.8,51.8,29.98,South,173,5.0,11.0,93,0.00,,,0.00,Wunderground v.1.15,2013-04-19 06:18:00,
2013-04-19 02:19:00,53.8,51.8,29.98,WSW,247,7.0,13.0,93,0.00,,,0.00,Wunderground v.1.15,2013-04-19 06:19:00,
2013-04-19 02:20:00,53.8,51.8,29.97,SSE,168,7.0,13.0,93,0.00,,,0.00,Wunderground v.1.15,2013-04-19 06:20:00,
2013-04-19 02:21:00,53.8,51.8,29.97,West,275,5.0,13.0,93,0.00,,,0.00,Wunderground v.1.15,2013-04-19 06:21:00,
2013-04-19 02:23:00,53.8,51.8,29.97,NNW,327,6.0,13.0,93,0.00,,,0.00,Wunderground v.1.15,2013-04-19 06:23:00,
2013-04-19 02:25:00,53.8,51.8,29.97,SW,227,1.0,13.0,93,0.00,,,0.00,Wunderground v.1.15,2013-04-19 06:25:00,
2013-04-19 02:26:00,53.7,51.7,29.97,SSW,196,7.0,13.0,93,0.00,,,0.00,Wunderground v.1.15,2013-04-19 06:26:00,
2013-04-19 02:28:00,53.7,51.7,29.97,NW,306,3.0,13.0,93,0.00,,,0.00,Wunderground v.1.15,2013-04-19 06:28:00,
2013-04-19 02:30:00,53.7,52.0,29.97,SE,142,4.0,6.0,94,0.00,,,0.00,Wunderground v.1.15,2013-04-19 06:30:00,
2013-04-19 02:31:00,53.7,52.0,29.97,SW,235,7.0,7.0,94,0.00,,,0.00,Wunderground v.1.15,2013-04-19 06:31:00,
2013-04-19 02:32:00,53.7,52.0,29.97,NNW,345,1.0,7.0,94,0.00,,,0.00,Wunderground v.1.15,2013-04-19 06:32:00,
2013-04-19 02:35:00,53.7,52.0,29.97,SSW,193,7.0,10.0,94,0.00,,,0.00,Wunderground v.1.15,2013-04-19 06:35:00,
2013-04-19 02:37:00,53.7,52.0,29.97,SE,126,3.0,10.0,94,0.00,,,0.00,Wunderground v.1.15,2013-04-19 06:37:00,
2013-04-19 02:38:00,53.8,52.1,29.97,SSW,212,1.0,10.0,94,0.00,,,0.00,Wunderground v.1.15,2013-04-19 06:38:00,
2013-04-19 02:39:00,53.8,52.1,29.97,SSW,201,1.0,5.0,94,0.00,,,0.00,Wunderground v.1.15,2013-04-19 06:39:00,
2013-04-19 02:42:00,53.9,52.2,29.96,WNW,296,8.0,8.0,94,0.00,,,0.00,Wunderground v.1.15,2013-04-19 06:42:00,
2013-04-19 02:43:00,53.9,52.2,29.96,West,259,2.0,8.0,94,0.00,,,0.00,Wunderground v.1.15,2013-04-19 06:43:00,
2013-04-19 02:44:00,53.9,52.2,29.96,West,267,0.0,8.0,94,0.00,,,0.00,Wunderground v.1.15,2013-04-19 06:44:00,
2013-04-19 02:45:00,54.0,52.3,29.96,South,182,5.0,14.0,94,0.00,,,0.00,Wunderground v.1.15,2013-04-19 06:45:00,
2013-04-19 02:48:00,54.1,52.4,29.96,West,279,5.0,14.0,94,0.00,,,0.00,Wunderground v.1.15,2013-04-19 06:48:00,
2013-04-19 02:49:00,54.1,52.4,29.96,NW,311,3.0,5.0,94,0.00,,,0.00,Wunderground v.1.15,2013-04-19 06:49:00,
2013-04-19 02:50:00,54.1,52.4,29.96,East,93,3.0,5.0,94,0.00,,,0.00,Wunderground v.1.15,2013-04-19 06:50:00,
2013-04-19 02:54:00,54.2,52.5,29.95,South,191,17.0,17.0,94,0.00,,,0.00,Wunderground v.1.15,2013-04-19 06:54:00,
2013-04-19 02:55:00,54.3,52.6,29.95,NE,46,2.0,17.0,94,0.00,,,0.00,Wunderground v.1.15,2013-04-19 06:55:00,
2013-04-19 02:56:00,54.3,52.6,29.95,ESE,122,7.0,17.0,94,0.00,,,0.00,Wunderground v.1.15,2013-04-19 06:56:00,
2013-04-19 02:59:00,54.4,52.7,29.94,SE,146,7.0,7.0,94,0.00,,,0.00,Wunderground v.1.15,2013-04-19 06:59:00,
2013-04-19 03:00:00,54.5,52.8,29.95,NE,56,5.0,7.0,94,0.00,,,0.00,Wunderground v.1.15,2013-04-19 07:00:00,
2013-04-19 03:01:00,54.5,52.8,29.95,SW,221,7.0,7.0,94,0.00,,,0.00,Wunderground v.1.15,2013-04-19 07:01:00,
2013-04-19 03:05:00,54.7,53.0,29.94,SSE,153,2.0,14.0,94,0.00,,,0.00,Wunderground v.1.15,2013-04-19 07:05:00,
2013-04-19 03:06:00,54.8,53.1,29.95,East,79,7.0,14.0,94,0.00,,,0.00,Wunderground v.1.15,2013-04-19 07:06:00,
2013-04-19 03:07:00,54.8,53.1,29.95,ESE,117,10.0,14.0,94,0.00,,,0.00,Wunderground v.1.15,2013-04-19 07:07:00,
2013-04-19 03:08:00,54.9,53.2,29.95,SSE,164,6.0,14.0,94,0.00,,,0.00,Wunderground v.1.15,2013-04-19 07:08:00,
2013-04-19 03:10:00,55.0,53.3,29.94,SSE,164,3.0,7.0,94,0.00,,,0.00,Wunderground v.1.15,2013-04-19 07:10:00,
2013-04-19 03:11:00,55.0,53.0,29.95,South,175,7.0,7.0,93,0.00,,,0.00,Wunderground v.1.15,2013-04-19 07:11:00,
2013-04-19 03:12:00,55.0,53.0,29.95,West,269,6.0,14.0,93,0.00,,,0.00,Wunderground v.1.15,2013-04-19 07:12:00,
2013-04-19 03:13:00,55.1,53.1,29.94,ESE,107,11.0,14.0,93,0.00,,,0.00,Wunderground v.1.15,2013-04-19 07:13:00,
2013-04-19 03:14:00,55.1,53.1,29.94,ESE,116,7.0,14.0,93,0.00,,,0.00,Wunderground v.1.15,2013-04-19 07:14:00,
2013-04-19 03:16:00,55.1,53.1,29.94,West,273,6.0,14.0,93,0.00,,,0.00,Wunderground v.1.15,2013-04-19 07:16:00,
2013-04-19 03:18:00,55.1,53.1,29.94,NNE,16,4.0,14.0,93,0.00,,,0.00,Wunderground v.1.15,2013-04-19 07:18:00,
2013-04-19 03:20:00,55.1,53.1,29.94,South,182,2.0,7.0,93,0.00,,,0.00,Wunderground v.1.15,2013-04-19 07:20:00,
2013-04-19 03:21:00,55.1,53.1,29.94,SSW,193,8.0,8.0,93,0.00,,,0.00,Wunderground v.1.15,2013-04-19 07:21:00,
2013-04-19 03:22:00,55.2,53.2,29.93,ESE,117,13.0,13.0,93,0.00,,,0.00,Wunderground v.1.15,2013-04-19 07:22:00,
2013-04-19 03:26:00,55.4,53.4,29.93,SSW,201,4.0,13.0,93,0.00,,,0.00,Wunderground v.1.15,2013-04-19 07:26:00,
2013-04-19 03:27:00,55.4,53.4,29.93,West,270,1.0,13.0,93,0.00,,,0.00,Wunderground v.1.15,2013-04-19 07:27:00,
2013-04-19 03:28:00,55.4,53.4,29.93,NE,47,2.0,13.0,93,0.00,,,0.00,Wunderground v.1.15,2013-04-19 07:28:00,
2013-04-19 03:31:00,55.5,53.5,29.92,WNW,284,4.0,7.0,93,0.00,,,0.00,Wunderground v.1.15,2013-04-19 07:31:00,
2013-04-19 03:32:00,55.5,53.2,29.92,SSW,198,4.0,7.0,92,0.00,,,0.00,Wunderground v.1.15,2013-04-19 07:32:00,
2013-04-19 03:33:00,55.5,53.2,29.91,South,186,12.0,12.0,92,0.00,,,0.00,Wunderground v.1.15,2013-04-19 07:33:00,
2013-04-19 03:34:00,55.5,53.2,29.91,South,185,4.0,14.0,92,0.00,,,0.00,Wunderground v.1.15,2013-04-19 07:34:00,
2013-04-19 03:35:00,55.5,53.2,29.91,East,98,13.0,14.0,92,0.00,,,0.00,Wunderground v.1.15,2013-04-19 07:35:00,
2013-04-19 03:37:00,55.6,53.3,29.91,South,190,3.0,14.0,92,0.00,,,0.00,Wunderground v.1.15,2013-04-19 07:37:00,
2013-04-19 03:38:00,55.6,53.3,29.91,East,82,3.0,14.0,92,0.00,,,0.00,Wunderground v.1.15,2013-04-19 07:38:00,
2013-04-19 03:39:00,55.7,53.4,29.91,SSW,197,7.0,7.0,92,0.00,,,0.00,Wunderground v.1.15,2013-04-19 07:39:00,
2013-04-19 03:41:00,55.7,53.4,29.91,WSW,242,3.0,7.0,92,0.00,,,0.00,Wunderground v.1.15,2013-04-19 07:41:00,
2013-04-19 03:43:00,55.7,53.4,29.90,East,80,13.0,13.0,92,0.00,,,0.00,Wunderground v.1.15,2013-04-19 07:43:00,
2013-04-19 03:44:00,55.8,53.5,29.90,SSW,205,4.0,13.0,92,0.00,,,0.00,Wunderground v.1.15,2013-04-19 07:44:00,
2013-04-19 03:45:00,55.8,53.5,29.90,SE,130,4.0,13.0,92,0.00,,,0.00,Wunderground v.1.15,2013-04-19 07:45:00,
2013-04-19 03:46:00,55.8,53.5,29.90,South,178,4.0,13.0,92,0.00,,,0.00,Wunderground v.1.15,2013-04-19 07:46:00,
2013-04-19 03:48:00,55.9,53.6,29.89,SSE,147,5.0,13.0,92,0.00,,,0.00,Wunderground v.1.15,2013-04-19 07:48:00,
2013-04-19 03:49:00,55.9,53.6,29.90,WSW,244,6.0,9.0,92,0.00,,,0.00,Wunderground v.1.15,2013-04-19 07:49:00,
2013-04-19 03:50:00,56.0,53.7,29.90,WNW,303,7.0,9.0,92,0.00,,,0.00,Wunderground v.1.15,2013-04-19 07:50:00,
2013-04-19 03:51:00,56.0,53.7,29.90,SSE,168,5.0,10.0,92,0.00,,,0.00,Wunderground v.1.15,2013-04-19 07:51:00,
2013-04-19 03:52:00,56.0,53.7,29.90,SE,136,8.0,10.0,92,0.00,,,0.00,Wunderground v.1.15,2013-04-19 07:52:00,
2013-04-19 03:54:00,56.1,53.8,29.89,South,180,13.0,13.0,92,0.00,,,0.00,Wunderground v.1.15,2013-04-19 07:54:00,
2013-04-19 03:55:00,56.1,53.8,29.89,SE,128,6.0,13.0,92,0.00,,,0.00,Wunderground v.1.15,2013-04-19 07:55:00,
2013-04-19 03:58:00,56.1,53.8,29.90,SSE,158,2.0,15.0,92,0.00,,,0.00,Wunderground v.1.15,2013-04-19 07:58:00,
2013-04-19 03:59:00,56.1,53.8,29.90,SW,223,1.0,8.0,92,0.00,,,0.00,Wunderground v.1.15,2013-04-19 07:59:00,
2013-04-19 04:01:00,56.1,53.8,29.89,SE,139,6.0,8.0,92,0.00,,,0.00,Wunderground v.1.15,2013-04-19 08:01:00,
2013-04-19 04:04:00,56.2,53.9,29.89,SSE,163,4.0,9.0,92,0.00,,,0.00,Wunderground v.1.15,2013-04-19 08:04:00,
2013-04-19 04:05:00,56.2,53.9,29.89,SW,215,3.0,12.0,92,0.00,,,0.00,Wunderground v.1.15,2013-04-19 08:05:00,
2013-04-19 04:08:00,56.4,54.1,29.89,SSE,152,3.0,12.0,92,0.00,,,0.00,Wunderground v.1.15,2013-04-19 08:08:00,
2013-04-19 04:09:00,56.4,54.1,29.89,ESE,115,3.0,6.0,92,0.00,,,0.00,Wunderground v.1.15,2013-04-19 08:09:00,
2013-04-19 04:10:00,56.4,53.8,29.89,ESE,104,4.0,6.0,91,0.00,,,0.00,Wunderground v.1.15,2013-04-19 08:10:00,
2013-04-19 04:14:00,56.6,54.0,29.89,SSE,147,2.0,13.0,91,0.00,,,0.00,Wunderground v.1.15,2013-04-19 08:14:00,
2013-04-19 04:15:00,56.6,54.0,29.89,SSE,158,9.0,13.0,91,0.00,,,0.00,Wunderground v.1.15,2013-04-19 08:15:00,
2013-04-19 04:16:00,56.6,54.0,29.89,West,263,2.0,13.0,91,0.00,,,0.00,Wunderground v.1.15,2013-04-19 08:16:00,
2013-04-19 04:17:00,56.6,54.0,29.88,East,96,2.0,13.0,91,0.00,,,0.00,Wunderground v.1.15,2013-04-19 08:17:00,
2013-04-19 04:20:00,56.6,54.0,29.89,SSW,196,5.0,9.0,91,0.00,,,0.00,Wunderground v.1.15,2013-04-19 08:20:00,
2013-04-19 04:21:00,56.6,54.0,29.89,SSW,209,4.0,9.0,91,0.00,,,0.00,Wunderground v.1.15,2013-04-19 08:21:00,
2013-04-19 04:22:00,56.6,54.0,29.89,East,90,1.0,9.0,91,0.00,,,0.00,Wunderground v.1.15,2013-04-19 08:22:00,
2013-04-19 04:23:00,56.7,54.1,29.89,WSW,255,6.0,9.0,91,0.00,,,0.00,Wunderground v.1.15,2013-04-19 08:23:00,
2013-04-19 04:26:00,56.8,54.2,29.90,East,89,11.0,11.0,91,0.00,,,0.00,Wunderground v.1.15,2013-04-19 08:26:00,
2013-04-19 04:27:00,56.8,53.9,29.90,SW,220,3.0,11.0,90,0.00,,,0.00,Wunderground v.1.15,2013-04-19 08:27:00,
2013-04-19 04:29:00,56.9,54.0,29.90,WSW,254,6.0,6.0,90,0.00,,,0.00,Wunderground v.1.15,2013-04-19 08:29:00,
2013-04-19 04:30:00,56.9,54.0,29.90,WSW,240,7.0,11.0,90,0.00,,,0.00,Wunderground v.1.15,2013-04-19 08:30:00,
2013-04-19 04:32:00,56.9,54.0,29.90,WNW,300,5.0,11.0,90,0.00,,,0.00,Wunderground v.1.15,2013-04-19 08:32:00,
2013-04-19 04:34:00,56.9,54.0,29.90,West,266,6.0,13.0,90,0.00,,,0.00,Wunderground v.1.15,2013-04-19 08:34:00,
2013-04-19 04:36:00,56.9,54.0,29.90,WNW,283,7.0,13.0,90,0.00,,,0.00,Wunderground v.1.15,2013-04-19 08:36:00,
2013-04-19 04:37:00,56.9,54.0,29.91,SW,214,8.0,13.0,90,0.00,,,0.00,Wunderground v.1.15,2013-04-19 08:37:00,
2013-04-19 04:39:00,56.9,54.0,29.91,WSW,241,6.0,6.0,90,0.00,,,0.00,Wunderground v.1.15,2013-04-19 08:39:00,
2013-04-19 04:40:00,56.9,54.0,29.91,West,271,10.0,10.0,90,0.00,,,0.00,Wunderground v.1.15,2013-04-19 08:40:00,
2013-04-19 04:41:00,56.9,54.0,29.91,NE,42,1.0,10.0,90,0.00,,,0.00,Wunderground v.1.15,2013-04-19 08:41:00,
2013-04-19 04:44:00,56.8,53.9,29.92,West,275,1.0,10.0,90,0.00,,,0.00,Wunderground v.1.15,2013-04-19 08:44:00,
2013-04-19 04:45:00,56.8,53.9,29.92,SE,137,5.0,10.0,90,0.00,,,0.00,Wunderground v.1.15,2013-04-19 08:45:00,
2013-04-19 04:46:00,56.8,53.9,29.92,ESE,119,4.0,10.0,90,0.00,,,0.00,Wunderground v.1.15,2013-04-19 08:46:00,
2013-04-19 04:49:00,56.8,54.2,29.92,NW,310,5.0,5.0,91,0.00,,,0.00,Wunderground v.1.15,2013-04-19 08:49:00,
2013-04-19 04:51:00,56.8,54.2,29.92,SSW,211,7.0,7.0,91,0.00,,,0.00,Wunderground v.1.15,2013-04-19 08:51:00,
2013-04-19 04:52:00,56.7,54.1,29.92,SE,144,6.0,7.0,91,0.00,,,0.00,Wunderground v.1.15,2013-04-19 08:52:00,
2013-04-19 04:55:00,56.7,54.1,29.92,West,275,10.0,10.0,91,0.00,,,0.00,Wunderground v.1.15,2013-04-19 08:55:00,
2013-04-19 04:56:00,56.7,54.1,29.92,SSE,150,4.0,10.0,91,0.00,,,0.00,Wunderground v.1.15,2013-04-19 08:56:00,
2013-04-19 04:57:00,56.7,54.1,29.92,SW,224,4.0,10.0,91,0.00,,,0.00,Wunderground v.1.15,2013-04-19 08:57:00,
2013-04-19 04:58:00,56.7,54.1,29.92,WSW,246,3.0,10.0,91,0.00,,,0.00,Wunderground v.1.15,2013-04-19 08:58:00,
2013-04-19 04:59:00,56.7,54.1,29.91,North,10,8.0,8.0,91,0.00,,,0.00,Wunderground v.1.15,2013-04-19 08:59:00,
2013-04-19 05:01:00,56.7,54.1,29.92,WNW,290,2.0,8.0,91,0.00,,,0.00,Wunderground v.1.15,2013-04-19 09:01:00,
2013-04-19 05:02:00,56.7,54.1,29.92,WSW,254,6.0,8.0,91,0.00,,,0.00,Wunderground v.1.15,2013-04-19 09:02:00,
2013-04-19 05:03:00,56.7,54.1,29.92,SE,126,6.0,8.0,91,0.00,,,0.00,Wunderground v.1.15,2013-04-19 09:03:00,
2013-04-19 05:04:00,56.6,54.0,29.92,SW,235,4.0,8.0,91,0.00,,,0.00,Wunderground v.1.15,2013-04-19 09:04:00,
2013-04-19 05:05:00,56.6,54.0,29.92,NNE,15,2.0,8.0,91,0.00,,,0.00,Wunderground v.1.15,2013-04-19 09:05:00,
2013-04-19 05:07:00,56.6,54.0,29.92,WNW,290,4.0,14.0,91,0.00,,,0.00,Wunderground v.1.15,2013-04-19 09:07:00,
2013-04-19 05:08:00,56.7,54.1,29.92,West,259,6.0,14.0,91,0.00,,,0.00,Wunderground v.1.15,2013-04-19 09:08:00,
2013-04-19 05:10:00,56.6,54.0,29.91,SE,130,3.0,8.0,91,0.00,,,0.00,Wunderground v.1.15,2013-04-19 09:10:00,
2013-04-19 05:12:00,56.6,54.0,29.91,SSE,156,14.0,14.0,91,0.00,,,0.00,Wunderground v.1.15,2013-04-19 09:12:00,
2013-04-19 05:14:00,56.6,54.0,29.91,SSW,213,10.0,14.0,91,0.00,,,0.00,Wunderground v.1.15,2013-04-19 09:14:00,
2013-04-19 05:15:00,56.6,54.0,29.91,ENE,57,3.0,14.0,91,0.00,,,0.00,Wunderground v.1.15,2013-04-19 09:15:00,
2013-04-19 05:16:00,56.6,54.0,29.91,South,174,2.0,14.0,91,0.00,,,0.00,Wunderground v.1.15,2013-04-19 09:16:00,
2013-04-19 05:17:00,56.5,53.9,29.90,SE,130,5.0,14.0,91,0.00,,,0.00,Wunderground v.1.15,2013-04-19 09:17:00,
2013-04-19 05:18:00,56.5,53.9,29.91,SSE,147,6.0,14.0,91,0.00,,,0.00,Wunderground v.1.15,2013-04-19 09:18:00,
2013-04-19 05:20:00,56.5,53.9,29.91,SSE,153,3.0,5.0,91,0.00,,,0.00,Wunderground v.1.15,2013-04-19 09:20:00,
2013-04-19 05:22:00,56.5,53.9,29.91,SW,234,2.0,6.0,91,0.00,,,0.00,Wunderground v.1.15,2013-04-19 09:22:00,
2013-04-19 05:23:00,56.4,53.8,29.90,WNW,292,5.0,7.0,91,0.00,,,0.00,Wunderground v.1.15,2013-04-19 09:23:00,
2013-04-19 05:25:00,56.4,53.8,29.90,SW,219,2.0,13.0,91,0.00,,,0.00,Wunderground v.1.15,2013-04-19 09:25:00,
2013-04-19 05:26:00,56.4,53.8,29.90,South,181,6.0,13.0,91,0.00,,,0.00,Wunderground v.1.15,2013-04-19 09:26:00,
2013-04-19 05:27:00,56.4,53.8,29.90,WNW,292,3.0,13.0,91,0.00,,,0.00,Wunderground v.1.15,2013-04-19 09:27:00,
2013-04-19 05:29:00,56.4,53.8,29.90,WNW,284,3.0,4.0,91,0.00,,,0.00,Wunderground v.1.15,2013-04-19 09:29:00,
2013-04-19 05:30:00,56.4,53.8,29.90,SE,140,10.0,10.0,91,0.00,,,0.00,Wunderground v.1.15,2013-04-19 09:30:00,
2013-04-19 05:31:00,56.4,53.8,29.90,WSW,252,2.0,10.0,91,0.00,,,0.00,Wunderground v.1.15,2013-04-19 09:31:00,
2013-04-19 05:32:00,56.4,54.1,29.90,WSW,245,3.0,10.0,92,0.00,,,0.00,Wunderground v.1.15,2013-04-19 09:32:00,
2013-04-19 05:35:00,56.4,54.1,29.90,South,173,1.0,10.0,92,0.00,,,0.00,Wunderground v.1.15,2013-04-19 09:35:00,
2013-04-19 05:36:00,56.4,54.1,29.90,ENE,63,1.0,14.0,92,0.00,,,0.00,Wunderground v.1.15,2013-04-19 09:36:00,
2013-04-19 05:38:00,56.3,54.0,29.90,SSE,150,5.0,14.0,92,0.00,,,0.00,Wunderground v.1.15,2013-04-19 09:38:00,
2013-04-19 05:41:00,56.3,54.0,29.90,ESE,116,3.0,16.0,92,0.00,,,0.00,Wunderground v.1.15,2013-04-19 09:41:00,
2013-04-19 05:42:00,56.3,54.0,29.89,SSE,164,3.0,16.0,92,0.00,,,0.00,Wunderground v.1.15,2013-04-19 09:42:00,
2013-04-19 05:44:00,56.3,54.0,29.89,NW,306,8.0,16.0,92,0.00,,,0.00,Wunderground v.1.15,2013-04-19 09:44:00,
2013-04-19 05:45:00,56.4,54.1,29.89,ENE,74,0.0,16.0,92,0.00,,,0.00,Wunderground v.1.15,2013-04-19 09:45:00,
2013-04-19 05:47:00,56.3,54.0,29.89,WSW,254,3.0,16.0,92,0.00,,,0.00,Wunderground v.1.15,2013-04-19 09:47:00,
2013-04-19 05:48:00,56.3,54.0,29.89,SW,236,2.0,16.0,92,0.00,,,0.00,Wunderground v.1.15,2013-04-19 09:48:00,
2013-04-19 05:49:00,56.3,54.0,29.90,SW,220,4.0,7.0,92,0.00,,,0.00,Wunderground v.1.15,2013-04-19 09:49:00,
2013-04-19 05:50:00,56.3,54.0,29.89,ESE,121,7.0,10.0,92,0.00,,,0.00,Wunderground v.1.15,2013-04-19 09:50:00,
2013-04-19 05:53:00,56.3,54.0,29.89,ENE,77,1.0,10.0,92,0.00,,,0.00,Wunderground v.1.15,2013-04-19 09:53:00,
2013-04-19 05:54:00,56.3,54.0,29.89,NW,319,8.0,10.0,92,0.00,,,0.00,Wunderground v.1.15,2013-04-19 09:54:00,
2013-04-19 05:55:00,56.3,54.0,29.89,SSE,153,7.0,12.0,92,0.00,,,0.00,Wunderground v.1.15,2013-04-19 09:55:00,
2013-04-19 05:57:00,56.4,54.1,29.88,SSE,152,4.0,12.0,92,0.00,,,0.00,Wunderground v.1.15,2013-04-19 09:57:00,
2013-04-19 05:58:00,56.4,54.1,29.89,WSW,242,3.0,12.0,92,0.00,,,0.00,Wunderground v.1.15,2013-04-19 09:58:00,
2013-04-19 06:00:00,56.4,54.1,29.89,SE,132,3.0,6.0,92,0.00,,,0.00,Wunderground v.1.15,2013-04-19 10:00:00,
2013-04-19 06:02:00,56.4,54.1,29.89,South,188,10.0,10.0,92,0.00,,,0.00,Wunderground v.1.15,2013-04-19 10:02:00,
2013-04-19 06:03:00,56.4,54.1,29.88,South,186,5.0,10.0,92,0.00,,,0.00,Wunderground v.1.15,2013-04-19 10:03:00,
2013-04-19 06:05:00,56.4,54.1,29.88,South,181,2.0,10.0,92,0.00,,,0.00,Wunderground v.1.15,2013-04-19 10:05:00,
2013-04-19 06:08:00,56.4,54.1,29.88,ESE,123,3.0,10.0,92,0.00,,,0.00,Wunderground v.1.15,2013-04-19 10:08:00,
2013-04-19 06:09:00,56.4,54.1,29.88,NE,55,9.0,9.0,92,0.00,,,0.00,Wunderground v.1.15,2013-04-19 10:09:00,
2013-04-19 06:11:00,56.4,54.1,29.88,SSE,157,3.0,9.0,92,0.00,,,0.00,Wunderground v.1.15,2013-04-19 10:11:00,
2013-04-19 06:12:00,56.4,54.1,29.88,SE,132,6.0,9.0,92,0.00,,,0.00,Wunderground v.1.15,2013-04-19 10:12:00,
2013-04-19 06:14:00,56.4,54.1,29.88,ESE,109,5.0,9.0,92,0.00,,,0.00,Wunderground v.1.15,2013-04-19 10:14:00,
2013-04-19 06:15:00,56.4,54.1,29.88,WNW,292,3.0,9.0,92,0.00,,,0.00,Wunderground v.1.15,2013-04-19 10:15:00,
2013-04-19 06:16:00,56.4,54.1,29.88,NW,321,4.0,13.0,92,0.00,,,0.00,Wunderground v.1.15,2013-04-19 10:16:00,
2013-04-19 06:18:00,56.4,54.1,29.88,South,187,4.0,13.0,92,0.00,,,0.00,Wunderground v.1.15,2013-04-19 10:18:00,
2013-04-19 06:20:00,56.4,54.1,29.88,SSE,148,3.0,7.0,92,0.00,,,0.00,Wunderground v.1.15,2013-04-19 10:20:00,
2013-04-19 06:21:00,56.4,54.1,29.88,NW,306,5.0,7.0,92,0.00,,,0.00,Wunderground v.1.15,2013-04-19 10:21:00,
2013-04-19 06:23:00,56.4,54.1,29.88,NW,309,4.0,7.0,92,0.00,,,0.00,Wunderground v.1.15,2013-04-19 10:23:00,
2013-04-19 06:25:00,56.4,54.1,29.88,WSW,252,4.0,11.0,92,0.00,,,0.00,Wunderground v.1.15,2013-04-19 10:25:00,
2013-04-19 06:26:00,56.4,54.1,29.88,West,261,2.0,11.0,92,0.00,,,0.00,Wunderground v.1.15,2013-04-19 10:26:00,
2013-04-19 06:27:00,56.5,54.2,29.88,SSE,159,4.0,11.0,92,0.00,,,0.00,Wunderground v.1.15,2013-04-19 10:27:00,
2013-04-19 06:29:00,56.4,54.1,29.89,SE,134,2.0,8.0,92,0.00,,,0.00,Wunderground v.1.15,2013-04-19 10:29:00,
2013-04-19 06:30:00,56.5,54.5,29.88,ESE,108,3.0,8.0,93,0.00,,,0.00,Wunderground v.1.15,2013-04-19 10:30:00,
2013-04-19 06:31:00,56.5,54.5,29.88,SSW,200,6.0,8.0,93,0.00,,,0.00,Wunderground v.1.15,2013-04-19 10:31:00,
2013-04-19 06:33:00,56.5,54.5,29.88,South,169,5.0,8.0,93,0.00,,,0.00,Wunderground v.1.15,2013-04-19 10:33:00,
2013-04-19 06:34:00,56.5,54.5,29.88,NNE,12,5.0,9.0,93,0.00,,,0.00,Wunderground v.1.15,2013-04-19 10:34:00,
2013-04-19 06:37:00,56.5,54.5,29.88,SSW,204,6.0,9.0,93,0.00,,,0.00,Wunderground v.1.15,2013-04-19 10:37:00,
2013-04-19 06:38:00,56.5,54.5,29.88,SSW,202,2.0,5.0,93,0.00,,,0.00,Wunderground v.1.15,2013-04-19 10:38:00,
2013-04-19 06:39:00,56.5,54.5,29.88,ENE,74,1.0,5.0,93,0.00,,,0.00,Wunderground v.1.15,2013-04-19 10:39:00,
2013-04-19 06:42:00,56.6,54.6,29.89,West,267,1.0,5.0,93,0.00,,,0.00,Wunderground v.1.15,2013-04-19 10:42:00,
2013-04-19 06:43:00,56.5,54.5,29.89,WSW,239,5.0,5.0,93,0.00,,,0.00,Wunderground v.1.15,2013-04-19 10:43:00,
2013-04-19 06:44:00,56.6,54.6,29.89,ESE,116,3.0,7.0,93,0.00,,,0.00,Wunderground v.1.15,2013-04-19 10:44:00,
2013-04-19 06:45:00,56.6,54.6,29.88,West,278,1.0,9.0,93,0.00,,,0.00,Wunderground v.1.15,2013-04-19 10:45:00,
2013-04-19 06:49:00,56.6,54.6,29.88,South,188,5.0,5.0,93,0.00,,,0.00,Wunderground v.1.15,2013-04-19 10:49:00,
2013-04-19 06:50:00,56.6,54.6,29.88,South,182,6.0,6.0,93,0.00,,,0.00,Wunderground v.1.15,2013-04-19 10:50:00,
2013-04-19 06:51:00,56.6,54.6,29.88,SW,232,5.0,6.0,93,0.00,,,0.00,Wunderground v.1.15,2013-04-19 10:51:00,
2013-04-19 06:52:00,56.6,54.6,29.88,South,184,5.0,6.0,93,0.00,,,0.00,Wunderground v.1.15,2013-04-19 10:52:00,
2013-04-19 06:55:00,56.6,54.6,29.88,SSE,157,1.0,9.0,93,0.00,,,0.00,Wunderground v.1.15,2013-04-19 10:55:00,
2013-04-19 06:57:00,56.7,54.7,29.88,ESE,108,3.0,9.0,93,0.00,,,0.00,Wunderground v.1.15,2013-04-19 10:57:00,
2013-04-19 06:58:00,56.6,54.6,29.88,SW,225,2.0,9.0,93,0.00,,,0.00,Wunderground v.1.15,2013-04-19 10:58:00,
2013-04-19 07:01:00,56.7,54.7,29.88,WNW,299,7.0,9.0,93,0.00,,,0.00,Wunderground v.1.15,2013-04-19 11:01:00,
2013-04-19 07:03:00,56.7,54.7,29.88,West,263,9.0,9.0,93,0.00,,,0.00,Wunderground v.1.15,2013-04-19 11:03:00,
2013-04-19 07:05:00,56.7,54.7,29.88,West,260,4.0,9.0,93,0.00,,,0.00,Wunderground v.1.15,2013-04-19 11:05:00,
2013-04-19 07:06:00,56.7,54.7,29.89,SSE,157,4.0,9.0,93,0.00,,,0.00,Wunderground v.1.15,2013-04-19 11:06:00,
2013-04-19 07:08:00,56.8,54.8,29.89,WNW,290,5.0,5.0,93,0.00,,,0.00,Wunderground v.1.15,2013-04-19 11:08:00,
2013-04-19 07:10:00,56.8,54.8,29.88,South,182,5.0,7.0,93,0.00,,,0.00,Wunderground v.1.15,2013-04-19 11:10:00,
2013-04-19 07:11:00,56.8,54.8,29.88,SSE,157,11.0,11.0,93,0.00,,,0.00,Wunderground v.1.15,2013-04-19 11:11:00,
2013-04-19 07:14:00,56.8,54.8,29.89,WSW,250,7.0,13.0,93,0.00,,,0.00,Wunderground v.1.15,2013-04-19 11:14:00,
2013-04-19 07:15:00,56.8,54.8,29.89,SSE,151,3.0,13.0,93,0.00,,,0.00,Wunderground v.1.15,2013-04-19 11:15:00,
2013-04-19 07:16:00,56.8,54.8,29.89,NNE,13,5.0,13.0,93,0.00,,,0.00,Wunderground v.1.15,2013-04-19 11:16:00,
2013-04-19 07:18:00,56.8,54.8,29.89,SSW,200,3.0,13.0,93,0.00,,,0.00,Wunderground v.1.15,2013-04-19 11:18:00,
2013-04-19 07:21:00,56.9,55.2,29.89,WSW,242,4.0,10.0,94,0.00,,,0.00,Wunderground v.1.15,2013-04-19 11:21:00,
2013-04-19 07:22:00,56.9,55.2,29.89,SSW,203,7.0,10.0,94,0.00,,,0.00,Wunderground v.1.15,2013-04-19 11:22:00,
2013-04-19 07:23:00,56.9,54.9,29.89,East,98,2.0,10.0,93,0.00,,,0.00,Wunderground v.1.15,2013-04-19 11:23:00,
2013-04-19 07:24:00,56.9,54.9,29.89,SSE,155,0.0,10.0,93,0.00,,,0.00,Wunderground v.1.15,2013-04-19 11:24:00,
2013-04-19 07:26:00,56.9,54.9,29.89,NNW,327,6.0,10.0,93,0.00,,,0.00,Wunderground v.1.15,2013-04-19 11:26:00,
2013-04-19 07:28:00,56.9,54.9,29.89,ENE,63,5.0,10.0,93,0.00,,,0.00,Wunderground v.1.15,2013-04-19 11:28:00,
2013-04-19 07:29:00,56.9,54.9,29.89,SE,136,8.0,8.0,93,0.00,,,0.00,Wunderground v.1.15,2013-04-19 11:29:00,
2013-04-19 07:32:00,57.0,55.3,29.90,ENE,57,3.0,8.0,94,0.00,,,0.00,Wunderground v.1.15,2013-04-19 11:32:00,
2013-04-19 07:33:00,57.0,55.3,29.89,East,82,9.0,9.0,94,0.00,,,0.00,Wunderground v.1.15,2013-04-19 11:33:00,
2013-04-19 07:34:00,57.0,55.3,29.89,ESE,109,2.0,9.0,94,0.00,,,0.00,Wunderground v.1.15,2013-04-19 11:34:00,
2013-04-19 07:35:00,57.0,55.3,29.90,SSW,196,1.0,9.0,94,0.00,,,0.00,Wunderground v.1.15,2013-04-19 11:35:00,
2013-04-19 07:38:00,57.1,55.4,29.90,NNW,336,5.0,9.0,94,0.00,,,0.00,Wunderground v.1.15,2013-04-19 11:38:00,
2013-04-19 07:40:00,57.1,55.1,29.90,WNW,283,3.0,6.0,93,0.00,,,0.00,Wunderground v.1.15,2013-04-19 11:40:00,
2013-04-19 07:41:00,57.1,55.1,29.90,North,350,2.0,6.0,93,0.00,,,0.00,Wunderground v.1.15,2013-04-19 11:41:00,
2013-04-19 07:44:00,57.1,55.1,29.89,SSE,155,3.0,6.0,93,0.00,,,0.00,Wunderground v.1.15,2013-04-19 11:44:00,
2013-04-19 07:45:00,57.1,55.1,29.89,South,182,6.0,7.0,93,0.00,,,0.00,Wunderground v.1.15,2013-04-19 11:45:00,
2013-04-19 07:46:00,57.1,55.1,29.89,SW,236,4.0,7.0,93,0.00,,,0.00,Wunderground v.1.15,2013-04-19 11:46:00,
2013-04-19 07:47:00,57.1,55.1,29.89,SE,126,2.0,7.0,93,0.00,,,0.00,Wunderground v.1.15,2013-04-19 11:47:00,
2013-04-19 07:51:00,57.1,55.4,29.90,SSE,152,6.0,12.0,94,0.00,,,0.00,Wunderground v.1.15,2013-04-19 11:51:00,
2013-04-19 07:52:00,57.1,55.4,29.89,SSE,162,1.0,12.0,94,0.00,,,0.00,Wunderground v.1.15,2013-04-19 11:52:00,
2013-04-19 07:54:00,57.2,55.5,29.89,WSW,257,2.0,12.0,94,0.00,,,0.00,Wunderground v.1.15,2013-04-19 11:54:00,
2013-04-19 07:57:00,57.2,55.5,29.89,SSW,213,2.0,12.0,94,0.00,,,0.00,Wunderground v.1.15,2013-04-19 11:57:00,
2013-04-19 07:58:00,57.2,55.5,29.89,SSE,167,4.0,12.0,94,0.00,,,0.00,Wunderground v.1.15,2013-04-19 11:58:00,
2013-04-19 07:59:00,57.3,55.6,29.89,East,94,6.0,6.0,94,0.00,,,0.00,Wunderground v.1.15,2013-04-19 11:59:00,
2013-04-19 08:02:00,57.3,55.3,29.89,SE,138,4.0,8.0,93,0.00,,,0.00,Wunderground v.1.15,2013-04-19 12:02:00,
2013-04-19 08:03:00,57.4,55.4,29.88,SSW,194,2.0,8.0,93,0.00,,,0.00,Wunderground v.1.15,2013-04-19 12:03:00,
2013-04-19 08:04:00,57.4,55.4,29.88,SE,132,5.0,8.0,93,0.00,,,0.00,Wunderground v.1.15,2013-04-19 12:04:00,
2013-04-19 08:05:00,57.4,55.4,29.88,SE,133,5.0,8.0,93,0.00,,,0.00,Wunderground v.1.15,2013-04-19 12:05:00,
2013-04-19 08:09:00,57.5,55.5,29.88,North,360,3.0,4.0,93,0.00,,,0.00,Wunderground v.1.15,2013-04-19 12:09:00,
2013-04-19 08:10:00,57.5,55.5,29.88,SSW,208,7.0,14.0,93,0.00,,,0.00,Wunderground v.1.15,2013-04-19 12:10:00,
2013-04-19 08:11:00,57.5,55.5,29.88,East,92,2.0,14.0,93,0.00,,,0.00,Wunderground v.1.15,2013-04-19 12:11:00,
2013-04-19 08:14:00,57.7,55.7,29.88,SE,129,2.0,14.0,93,0.00,,,0.00,Wunderground v.1.15,2013-04-19 12:14:00,
2013-04-19 08:16:00,57.7,55.7,29.88,SSW,207,1.0,14.0,93,0.00,,,0.00,Wunderground v.1.15,2013-04-19 12:16:00,
2013-04-19 08:17:00,57.7,55.7,29.88,SSE,150,4.0,14.0,93,0.00,,,0.00,Wunderground v.1.15,2013-04-19 12:17:00,
2013-04-19 08:20:00,57.9,55.9,29.88,WNW,288,2.0,7.0,93,0.00,,,0.00,Wunderground v.1.15,2013-04-19 12:20:00,
2013-04-19 08:21:00,58.0,56.0,29.88,SW,220,3.0,7.0,93,0.00,,,0.00,Wunderground v.1.15,2013-04-19 12:21:00,
2013-04-19 08:22:00,58.0,56.0,29.88,NW,310,4.0,8.0,93,0.00,,,0.00,Wunderground v.1.15,2013-04-19 12:22:00,
2013-04-19 08:26:00,58.2,55.9,29.88,WSW,238,4.0,10.0,92,0.00,,,0.00,Wunderground v.1.15,2013-04-19 12:26:00,
2013-04-19 08:27:00,58.2,55.9,29.87,SSE,160,4.0,10.0,92,0.00,,,0.00,Wunderground v.1.15,2013-04-19 12:27:00,
2013-04-19 08:30:00,58.2,55.9,29.87,ESE,121,2.0,6.0,92,0.00,,,0.00,Wunderground v.1.15,2013-04-19 12:30:00,
2013-04-19 08:32:00,58.3,56.0,29.87,SE,126,2.0,6.0,92,0.00,,,0.00,Wunderground v.1.15,2013-04-19 12:32:00,
2013-04-19 08:33:00,58.3,56.0,29.87,SW,225,4.0,6.0,92,0.00,,,0.00,Wunderground v.1.15,2013-04-19 12:33:00,
2013-04-19 08:36:00,58.5,55.9,29.87,WNW,295,5.0,12.0,91,0.00,,,0.00,Wunderground v.1.15,2013-04-19 12:36:00,
2013-04-19 08:37:00,58.6,56.3,29.87,East,81,3.0,12.0,92,0.00,,,0.00,Wunderground v.1.15,2013-04-19 12:37:00,
2013-04-19 08:38:00,58.7,56.1,29.87,West,279,1.0,12.0,91,0.00,,,0.00,Wunderground v.1.15,2013-04-19 12:38:00,
2013-04-19 08:39:00,58.8,56.2,29.87,SW,226,5.0,5.0,91,0.00,,,0.00,Wunderground v.1.15,2013-04-19 12:39:00,
2013-04-19 08:43:00,58.9,56.3,29.87,WSW,239,10.0,10.0,91,0.00,,,0.00,Wunderground v.1.15,2013-04-19 12:43:00,
2013-04-19 08:45:00,58.8,55.9,29.87,ESE,121,3.0,10.0,90,0.00,,,0.00,Wunderground v.1.15,2013-04-19 12:45:00,
2013-04-19 08:47:00,58.8,55.9,29.87,ESE,115,1.0,10.0,90,0.00,,,0.00,Wunderground v.1.15,2013-04-19 12:47:00,
2013-04-19 08:49:00,58.8,55.9,29.87,ENE,63,3.0,5.0,90,0.00,,,0.00,Wunderground v.1.15,2013-04-19 12:49:00,
2013-04-19 08:50:00,58.8,55.9,29.87,ENE,72,1.0,5.0,90,0.00,,,0.00,Wunderground v.1.15,2013-04-19 12:50:00,
2013-04-19 08:52:00,58.7,56.1,29.87,ESE,116,2.0,7.0,91,0.00,,,0.00,Wunderground v.1.15,2013-04-19 12:52:00,
2013-04-19 08:53:00,58.7,56.1,29.87,West,262,0.0,7.0,91,0.00,,,0.00,Wunderground v.1.15,2013-04-19 12:53:00,
2013-04-19 08:55:00,58.7,56.1,29.87,SW,234,4.0,7.0,91,0.00,,,0.00,Wunderground v.1.15,2013-04-19 12:55:00,
2013-04-19 08:56:00,58.7,56.1,29.87,SW,221,8.0,8.0,91,0.00,,,0.00,Wunderground v.1.15,2013-04-19 12:56:00,
2013-04-19 08:57:00,58.6,56.0,29.87,SW,225,3.0,8.0,91,0.00,,,0.00,Wunderground v.1.15,2013-04-19 12:57:00,
2013-04-19 08:59:00,58.6,56.0,29.87,SW,216,7.0,7.0,91,0.00,,,0.00,Wunderground v.1.15,2013-04-19 12:59:00,
2013-04-19 09:01:00,58.6,56.0,29.86,West,269,2.0,8.0,91,0.00,,,0.00,Wunderground v.1.15,2013-04-19 13:01:00,
2013-04-19 09:02:00,58.6,56.0,29.86,SW,217,2.0,8.0,91,0.00,,,0.00,Wunderground v.1.15,2013-04-19 13:02:00,
2013-04-19 09:03:00,58.6,56.0,29.87,SE,124,2.0,8.0,91,0.00,,,0.00,Wunderground v.1.15,2013-04-19 13:03:00,
2013-04-19 09:05:00,58.6,56.0,29.86,NE,55,3.0,8.0,91,0.00,,,0.00,Wunderground v.1.15,2013-04-19 13:05:00,
2013-04-19 09:07:00,58.6,56.0,29.86,WNW,284,3.0,8.0,91,0.00,,,0.00,Wunderground v.1.15,2013-04-19 13:07:00,
2013-04-19 09:09:00,58.6,56.0,29.87,SSE,165,1.0,5.0,91,0.00,,,0.00,Wunderground v.1.15,2013-04-19 13:09:00,
2013-04-19 09:11:00,58.6,56.0,29.86,SE,129,3.0,5.0,91,0.00,,,0.00,Wunderground v.1.15,2013-04-19 13:11:00,
2013-04-19 09:12:00,58.6,56.0,29.87,SW,223,4.0,8.0,91,0.00,,,0.00,Wunderground v.1.15,2013-04-19 13:12:00,
2013-04-19 09:13:00,58.6,56.0,29.87,WNW,284,4.0,8.0,91,0.00,,,0.00,Wunderground v.1.15,2013-04-19 13:13:00,
2013-04-19 09:14:00,58.6,56.0,29.86,South,177,0.0,8.0,91,0.00,,,0.00,Wunderground v.1.15,2013-04-19 13:14:00,
2013-04-19 09:18:00,58.7,56.1,29.86,SSE,162,6.0,8.0,91,0.00,,,0.00,Wunderground v.1.15,2013-04-19 13:18:00,
2013-04-19 09:20:00,58.8,56.2,29.86,SE,126,4.0,9.0,91,0.00,,,0.00,Wunderground v.1.15,2013-04-19 13:20:00,
2013-04-19 09:21:00,58.9,56.3,29.86,SE,126,1.0,9.0,91,0.00,,,0.00,Wunderground v.1.15,2013-04-19 13:21:00,
2013-04-19 09:23:00,58.9,56.3,29.86,SSW,204,6.0,9.0,91,0.00,,,0.00,Wunderground v.1.15,2013-04-19 13:23:00,
2013-04-19 09:25:00,59.0,56.4,29.86,ENE,69,0.0,9.0,91,0.00,,,0.00,Wunderground v.1.15,2013-04-19 13:25:00,
2013-04-19 09:27:00,59.1,56.5,29.86,ESE,117,1.0,9.0,91,0.00,,,0.00,Wunderground v.1.15,2013-04-19 13:27:00,
2013-04-19 09:28:00,59.2,56.6,29.86,SW,214,3.0,9.0,91,0.00,,,0.00,Wunderground v.1.15,2013-04-19 13:28:00,
2013-04-19 09:29:00,59.2,56.6,29.86,South,174,3.0,3.0,91,0.00,,,0.00,Wunderground v.1.15,2013-04-19 13:29:00,
2013-04-19 09:30:00,59.2,56.6,29.86,SSE,159,3.0,5.0,91,0.00,,,0.00,Wunderground v.1.15,2013-04-19 13:30:00,
2013-04-19 09:31:00,59.3,56.7,29.86,South,177,5.0,8.0,91,0.00,,,0.00,Wunderground v.1.15,2013-04-19 13:31:00,
2013-04-19 09:33:00,59.3,56.4,29.86,NW,307,2.0,8.0,90,0.00,,,0.00,Wunderground v.1.15,2013-04-19 13:33:00,
2013-04-19 09:34:00,59.4,56.5,29.86,NW,307,0.0,8.0,90,0.00,,,0.00,Wunderground v.1.15,2013-04-19 13:34:00,
2013-04-19 09:36:00,59.4,56.5,29.85,SSE,160,11.0,11.0,90,0.00,,,0.00,Wunderground v.1.15,2013-04-19 13:36:00,
2013-04-19 09:38:00,59.4,56.5,29.85,NNW,333,0.0,11.0,90,0.00,,,0.00,Wunderground v.1.15,2013-04-19 13:38:00,
2013-04-19 09:40:00,59.5,56.6,29.86,South,177,2.0,4.0,90,0.00,,,0.00,Wunderground v.1.15,2013-04-19 13:40:00,
2013-04-19 09:41:00,59.5,56.6,29.86,West,272,12.0,12.0,90,0.00,,,0.00,Wunderground v.1.15,2013-04-19 13:41:00,
2013-04-19 09:43:00,59.5,56.3,29.86,ESE,120,4.0,12.0,89,0.00,,,0.00,Wunderground v.1.15,2013-04-19 13:43:00,
2013-04-19 09:44:00,59.5,56.3,29.85,South,173,3.0,12.0,89,0.00,,,0.00,Wunderground v.1.15,2013-04-19 13:44:00,
2013-04-19 09:45:00,59.5,56.3,29.85,South,184,2.0,12.0,89,0.00,,,0.00,Wunderground v.1.15,2013-04-19 13:45:00,
2013-04-19 09:47:00,59.5,56.3,29.85,SW,229,5.0,12.0,89,0.00,,,0.00,Wunderground v.1.15,2013-04-19 13:47:00,
2013-04-19 09:49:00,59.5,56.3,29.85,WNW,296,1.0,4.0,89,0.00,,,0.00,Wunderground v.1.15,2013-04-19 13:49:00,
2013-04-19 09:51:00,59.6,56.4,29.85,South,188,2.0,7.0,89,0.00,,,0.00,Wunderground v.1.15,2013-04-19 13:51:00,
2013-04-19 09:52:00,59.6,56.4,29.85,NE,39,1.0,7.0,89,0.00,,,0.00,Wunderground v.1.15,2013-04-19 13:52:00,
2013-04-19 09:55:00,59.7,56.5,29.85,SSE,150,7.0,7.0,89,0.00,,,0.00,Wunderground v.1.15,2013-04-19 13:55:00,
2013-04-19 09:56:00,59.7,56.5,29.85,ESE,108,3.0,9.0,89,0.00,,,0.00,Wunderground v.1.15,2013-04-19 13:56:00,
2013-04-19 09:57:00,59.7,56.5,29.85,WNW,286,3.0,9.0,89,0.00,,,0.00,Wunderground v.1.15,2013-04-19 13:57:00,
2013-04-19 09:58:00,59.7,56.5,29.85,West,264,3.0,10.0,89,0.00,,,0.00,Wunderground v.1.15,2013-04-19 13:58:00,
2013-04-19 09:59:00,59.7,56.5,29.85,West,281,4.0,4.0,89,0.00,,,0.00,Wunderground v.1.15,2013-04-19 13:59:00,
2013-04-19 10:00:00,59.8,56.6,29.85,South,181,2.0,5.0,89,0.00,,,0.00,Wunderground v.1.15,2013-04-19 14:00:00,
2013-04-19 10:03:00,59.8,56.6,29.85,SSW,213,4.0,7.0,89,0.00,,,0.00,Wunderground v.1.15,2013-04-19 14:03:00,
2013-04-19 10:05:00,59.9,56.6,29.85,WSW,253,3.0,7.0,89,0.00,,,0.00,Wunderground v.1.15,2013-04-19 14:05:00,
2013-04-19 10:06:00,59.9,56.6,29.85,WSW,256,3.0,7.0,89,0.00,,,0.00,Wunderground v.1.15,2013-04-19 14:06:00,
2013-04-19 10:07:00,59.9,56.6,29.85,WSW,257,1.0,7.0,89,0.00,,,0.00,Wunderground v.1.15,2013-04-19 14:07:00,
2013-04-19 10:09:00,60.0,56.7,29.85,SW,234,1.0,3.0,89,0.00,,,0.00,Wunderground v.1.15,2013-04-19 14:09:00,
2013-04-19 10:12:00,60.1,56.8,29.85,SSE,148,4.0,7.0,89,0.00,,,0.00,Wunderground v.1.15,2013-04-19 14:12:00,
2013-04-19 10:13:00,60.3,56.7,29.84,North,355,4.0,7.0,88,0.00,,,0.00,Wunderground v.1.15,2013-04-19 14:13:00,
2013-04-19 10:15:00,60.4,56.8,29.84,WNW,294,2.0,7.0,88,0.00,,,0.00,Wunderground v.1.15,2013-04-19 14:15:00,
2013-04-19 10:17:00,60.7,57.1,29.83,SE,129,4.0,8.0,88,0.00,,,0.00,Wunderground v.1.15,2013-04-19 14:17:00,
2013-04-19 10:20:00,61.1,57.2,29.83,South,173,4.0,14.0,87,0.00,,,0.00,Wunderground v.1.15,2013-04-19 14:20:00,
2013-04-19 10:21:00,61.2,57.3,29.83,SSW,213,7.0,14.0,87,0.00,,,0.00,Wunderground v.1.15,2013-04-19 14:21:00,
2013-04-19 10:23:00,61.5,57.3,29.83,SSW,200,1.0,14.0,86,0.00,,,0.00,Wunderground v.1.15,2013-04-19 14:23:00,
2013-04-19 10:24:00,61.6,57.0,29.83,ESE,119,3.0,14.0,85,0.00,,,0.00,Wunderground v.1.15,2013-04-19 14:24:00,
2013-04-19 10:26:00,61.8,57.2,29.83,ESE,111,10.0,14.0,85,0.00,,,0.00,Wunderground v.1.15,2013-04-19 14:26:00,
2013-04-19 10:27:00,61.8,57.2,29.83,SW,218,8.0,14.0,85,0.00,,,0.00,Wunderground v.1.15,2013-04-19 14:27:00,
2013-04-19 10:29:00,62.0,57.1,29.84,SSW,200,7.0,7.0,84,0.00,,,0.00,Wunderground v.1.15,2013-04-19 14:29:00,
2013-04-19 10:30:00,62.0,57.1,29.84,South,176,5.0,7.0,84,0.00,,,0.00,Wunderground v.1.15,2013-04-19 14:30:00,
2013-04-19 10:32:00,62.0,57.1,29.83,South,185,7.0,8.0,84,0.00,,,0.00,Wunderground v.1.15,2013-04-19 14:32:00,
2013-04-19 10:34:00,62.0,57.1,29.83,WNW,296,3.0,8.0,84,0.00,,,0.00,Wunderground v.1.15,2013-04-19 14:34:00,
2013-04-19 10:36:00,62.2,57.3,29.83,SE,143,4.0,8.0,84,0.00,,,0.00,Wunderground v.1.15,2013-04-19 14:36:00,
2013-04-19 10:38:00,62.2,57.3,29.83,ESE,117,3.0,8.0,84,0.00,,,0.00,Wunderground v.1.15,2013-04-19 14:38:00,
2013-04-19 10:39:00,62.3,57.4,29.83,NNE,26,1.0,4.0,84,0.00,,,0.00,Wunderground v.1.15,2013-04-19 14:39:00,
2013-04-19 10:44:00,62.3,57.1,29.83,South,189,3.0,10.0,83,0.00,,,0.00,Wunderground v.1.15,2013-04-19 14:44:00,
2013-04-19 10:45:00,62.2,57.0,29.83,SE,133,6.0,10.0,83,0.00,,,0.00,Wunderground v.1.15,2013-04-19 14:45:00,
2013-04-19 10:47:00,62.1,56.9,29.83,SSW,206,4.0,10.0,83,0.00,,,0.00,Wunderground v.1.15,2013-04-19 14:47:00,
2013-04-19 10:49:00,62.0,56.8,29.83,South,188,1.0,5.0,83,0.00,,,0.00,Wunderground v.1.15,2013-04-19 14:49:00,
2013-04-19 10:50:00,62.0,56.8,29.83,South,181,5.0,5.0,83,0.00,,,0.00,Wunderground v.1.15,2013-04-19 14:50:00,
2013-04-19 10:51:00,62.0,56.8,29.82,SSE,159,1.0,5.0,83,0.00,,,0.00,Wunderground v.1.15,2013-04-19 14:51:00,
2013-04-19 10:52:00,61.9,56.7,29.82,SE,127,4.0,5.0,83,0.00,,,0.00,Wunderground v.1.15,2013-04-19 14:52:00,
2013-04-19 10:53:00,61.9,56.7,29.83,WSW,240,1.0,5.0,83,0.00,,,0.00,Wunderground v.1.15,2013-04-19 14:53:00,
2013-04-19 10:55:00,62.0,56.8,29.83,NW,304,5.0,5.0,83,0.00,,,0.00,Wunderground v.1.15,2013-04-19 14:55:00,
2013-04-19 10:56:00,62.0,56.8,29.82,SSE,153,3.0,7.0,83,0.00,,,0.00,Wunderground v.1.15,2013-04-19 14:56:00,
2013-04-19 10:58:00,61.9,56.7,29.83,NE,48,4.0,7.0,83,0.00,,,0.00,Wunderground v.1.15,2013-04-19 14:58:00,
2013-04-19 10:59:00,61.9,56.7,29.83,SE,144,4.0,5.0,83,0.00,,,0.00,Wunderground v.1.15,2013-04-19 14:59:00,
2013-04-19 11:01:00,61.9,56.7,29.83,ESE,111,2.0,5.0,83,0.00,,,0.00,Wunderground v.1.15,2013-04-19 15:01:00,
2013-04-19 11:03:00,61.8,56.6,29.83,SSE,153,3.0,6.0,83,0.00,,,0.00,Wunderground v.1.15,2013-04-19 15:03:00,
2013-04-19 11:04:00,61.8,56.6,29.83,SE,144,1.0,6.0,83,0.00,,,0.00,Wunderground v.1.15,2013-04-19 15:04:00,
2013-04-19 11:06:00,61.8,56.6,29.82,South,169,4.0,7.0,83,0.00,,,0.00,Wunderground v.1.15,2013-04-19 15:06:00,
2013-04-19 11:09:00,61.8,56.6,29.82,ESE,117,10.0,10.0,83,0.00,,,0.00,Wunderground v.1.15,2013-04-19 15:09:00,
2013-04-19 11:10:00,61.8,56.6,29.82,SSE,152,3.0,10.0,83,0.00,,,0.00,Wunderground v.1.15,2013-04-19 15:10:00,
2013-04-19 11:11:00,61.8,56.6,29.82,SW,232,3.0,10.0,83,0.00,,,0.00,Wunderground v.1.15,2013-04-19 15:11:00,
2013-04-19 11:13:00,61.8,56.6,29.82,SSE,148,4.0,10.0,83,0.00,,,0.00,Wunderground v.1.15,2013-04-19 15:13:00,
2013-04-19 11:15:00,61.8,56.6,29.81,SW,223,3.0,10.0,83,0.00,,,0.00,Wunderground v.1.15,2013-04-19 15:15:00,
2013-04-19 11:16:00,61.8,56.6,29.81,ENE,67,2.0,10.0,83,0.00,,,0.00,Wunderground v.1.15,2013-04-19 15:16:00,
2013-04-19 11:19:00,61.9,56.7,29.81,WNW,297,2.0,3.0,83,0.00,,,0.00,Wunderground v.1.15,2013-04-19 15:19:00,
2013-04-19 11:20:00,61.9,56.7,29.81,WSW,238,2.0,4.0,83,0.00,,,0.00,Wunderground v.1.15,2013-04-19 15:20:00,
2013-04-19 11:21:00,62.0,56.8,29.82,SW,221,1.0,4.0,83,0.00,,,0.00,Wunderground v.1.15,2013-04-19 15:21:00,
2013-04-19 11:25:00,62.2,57.3,29.81,WNW,284,3.0,5.0,84,0.00,,,0.00,Wunderground v.1.15,2013-04-19 15:25:00,
2013-04-19 11:27:00,62.5,57.3,29.81,SSE,164,6.0,6.0,83,0.00,,,0.00,Wunderground v.1.15,2013-04-19 15:27:00,
2013-04-19 11:28:00,62.5,57.3,29.81,SW,236,4.0,6.0,83,0.00,,,0.00,Wunderground v.1.15,2013-04-19 15:28:00,
2013-04-19 11:30:00,62.6,57.0,29.81,SW,215,6.0,6.0,82,0.00,,,0.00,Wunderground v.1.15,2013-04-19 15:30:00,
2013-04-19 11:31:00,62.7,57.1,29.81,ESE,116,8.0,8.0,82,0.00,,,0.00,Wunderground v.1.15,2013-04-19 15:31:00,
2013-04-19 11:33:00,62.6,57.0,29.81,SSW,210,6.0,8.0,82,0.00,,,0.00,Wunderground v.1.15,2013-04-19 15:33:00,
2013-04-19 11:35:00,62.6,57.0,29.81,West,262,5.0,8.0,82,0.00,,,0.00,Wunderground v.1.15,2013-04-19 15:35:00,
2013-04-19 11:36:00,62.6,57.0,29.81,NE,36,4.0,8.0,82,0.00,,,0.00,Wunderground v.1.15,2013-04-19 15:36:00,
2013-04-19 11:37:00,62.6,57.0,29.81,WSW,244,4.0,9.0,82,0.00,,,0.00,Wunderground v.1.15,2013-04-19 15:37:00,
2013-04-19 11:41:00,62.6,57.4,29.81,ENE,68,2.0,6.0,83,0.00,,,0.00,Wunderground v.1.15,2013-04-19 15:41:00,
2013-04-19 11:42:00,62.7,57.5,29.81,SSE,155,1.0,7.0,83,0.00,,,0.00,Wunderground v.1.15,2013-04-19 15:42:00,
2013-04-19 11:45:00,62.7,57.5,29.81,SSE,167,1.0,7.0,83,0.00,,,0.00,Wunderground v.1.15,2013-04-19 15:45:00,
2013-04-19 11:46:00,62.7,57.1,29.81,SSE,157,3.0,7.0,82,0.00,,,0.00,Wunderground v.1.15,2013-04-19 15:46:00,
2013-04-19 11:48:00,62.6,57.0,29.81,ESE,115,3.0,7.0,82,0.00,,,0.00,Wunderground v.1.15,2013-04-19 15:48:00,
2013-04-19 11:50:00,62.6,57.4,29.80,SSW,213,4.0,4.0,83,0.00,,,0.00,Wunderground v.1.15,2013-04-19 15:50:00,
2013-04-19 11:51:00,62.6,57.4,29.80,ESE,117,1.0,4.0,83,0.00,,,0.00,Wunderground v.1.15,2013-04-19 15:51:00,
2013-04-19 11:52:00,62.6,57.4,29.80,WSW,249,1.0,4.0,83,0.00,,,0.00,Wunderground v.1.15,2013-04-19 15:52:00,
2013-04-19 11:56:00,62.5,57.3,29.80,SE,139,4.0,6.0,83,0.00,,,0.00,Wunderground v.1.15,2013-04-19 15:56:00,
2013-04-19 11:57:00,62.5,57.3,29.80,NNW,344,4.0,6.0,83,0.00,,,0.00,Wunderground v.1.15,2013-04-19 15:57:00,
2013-04-19 11:58:00,62.5,57.3,29.80,South,182,5.0,6.0,83,0.00,,,0.00,Wunderground v.1.15,2013-04-19 15:58:00,
2013-04-19 11:59:00,62.5,57.3,29.80,SSW,200,3.0,3.0,83,0.00,,,0.00,Wunderground v.1.15,2013-04-19 15:59:00,
2013-04-19 12:01:00,62.6,57.4,29.80,SSE,157,5.0,5.0,83,0.00,,,0.00,Wunderground v.1.15,2013-04-19 16:01:00,
2013-04-19 12:02:00,62.7,57.5,29.80,NW,309,4.0,5.0,83,0.00,,,0.00,Wunderground v.1.15,2013-04-19 16:02:00,
2013-04-19 12:04:00,62.8,57.6,29.79,SSE,150,1.0,8.0,83,0.00,,,0.00,Wunderground v.1.15,2013-04-19 16:04:00,
2013-04-19 12:05:00,62.8,57.6,29.79,SSE,161,4.0,8.0,83,0.00,,,0.00,Wunderground v.1.15,2013-04-19 16:05:00,
2013-04-19 12:07:00,62.9,57.7,29.79,SSW,192,7.0,8.0,83,0.00,,,0.00,Wunderground v.1.15,2013-04-19 16:07:00,
2013-04-19 12:08:00,62.9,57.7,29.79,WSW,257,4.0,8.0,83,0.00,,,0.00,Wunderground v.1.15,2013-04-19 16:08:00,
2013-04-19 12:09:00,63.1,57.9,29.78,SW,235,7.0,7.0,83,0.00,,,0.00,Wunderground v.1.15,2013-04-19 16:09:00,
2013-04-19 12:10:00,63.1,57.9,29.78,East,98,5.0,7.0,83,0.00,,,0.00,Wunderground v.1.15,2013-04-19 16:10:00,
2013-04-19 12:13:00,63.5,57.9,29.78,NNE,25,2.0,8.0,82,0.00,,,0.00,Wunderground v.1.15,2013-04-19 16:13:00,
2013-04-19 12:14:00,63.5,57.9,29.78,SSE,150,3.0,8.0,82,0.00,,,0.00,Wunderground v.1.15,2013-04-19 16:14:00,
2013-04-19 12:17:00,63.7,58.1,29.78,NE,37,3.0,9.0,82,0.00,,,0.00,Wunderground v.1.15,2013-04-19 16:17:00,
2013-04-19 12:19:00,63.7,58.1,29.78,SE,126,3.0,7.0,82,0.00,,,0.00,Wunderground v.1.15,2013-04-19 16:19:00,
2013-04-19 12:20:00,63.8,57.9,29.77,South,171,4.0,7.0,81,0.00,,,0.00,Wunderground v.1.15,2013-04-19 16:20:00,
2013-04-19 12:22:00,63.7,58.1,29.77,SW,214,6.0,7.0,82,0.00,,,0.00,Wunderground v.1.15,2013-04-19 16:22:00,
2013-04-19 12:24:00,63.7,58.1,29.78,WSW,246,1.0,7.0,82,0.00,,,0.00,Wunderground v.1.15,2013-04-19 16:24:00,
2013-04-19 12:25:00,63.7,58.1,29.77,SE,144,2.0,7.0,82,0.00,,,0.00,Wunderground v.1.15,2013-04-19 16:25:00,
2013-04-19 12:26:00,63.7,58.1,29.77,SE,144,1.0,7.0,82,0.00,,,0.00,Wunderground v.1.15,2013-04-19 16:26:00,
2013-04-19 12:27:00,63.7,58.1,29.77,SSW,211,2.0,7.0,82,0.00,,,0.00,Wunderground v.1.15,2013-04-19 16:27:00,
2013-04-19 12:28:00,63.7,58.1,29.77,South,185,3.0,7.0,82,0.00,,,0.00,Wunderground v.1.15,2013-04-19 16:28:00,
2013-04-19 12:30:00,63.8,58.2,29.77,SE,138,4.0,5.0,82,0.00,,,0.00,Wunderground v.1.15,2013-04-19 16:30:00,
2013-04-19 12:31:00,63.8,58.2,29.77,East,99,1.0,5.0,82,0.00,,,0.00,Wunderground v.1.15,2013-04-19 16:31:00,
2013-04-19 12:32:00,63.8,58.2,29.77,SW,233,4.0,5.0,82,0.00,,,0.00,Wunderground v.1.15,2013-04-19 16:32:00,
2013-04-19 12:34:00,63.8,58.2,29.77,South,183,1.0,6.0,82,0.00,,,0.00,Wunderground v.1.15,2013-04-19 16:34:00,
2013-04-19 12:35:00,63.8,58.2,29.77,SE,127,2.0,6.0,82,0.00,,,0.00,Wunderground v.1.15,2013-04-19 16:35:00,
2013-04-19 12:37:00,63.8,58.5,29.77,SSW,206,1.0,7.0,83,0.00,,,0.00,Wunderground v.1.15,2013-04-19 16:37:00,
2013-04-19 12:38:00,63.8,58.9,29.77,SE,137,7.0,7.0,84,0.00,,,0.00,Wunderground v.1.15,2013-04-19 16:38:00,
2013-04-19 12:40:00,63.7,58.8,29.77,NNW,329,7.0,7.0,84,0.00,,,0.00,Wunderground v.1.15,2013-04-19 16:40:00,
2013-04-19 12:42:00,63.4,58.8,29.76,SE,144,1.0,7.0,85,0.00,,,0.00,Wunderground v.1.15,2013-04-19 16:42:00,
2013-04-19 12:44:00,63.3,59.0,29.76,SE,135,0.0,7.0,86,0.00,,,0.00,Wunderground v.1.15,2013-04-19 16:44:00,
2013-04-19 12:46:00,63.3,59.4,29.76,South,176,1.0,7.0,87,0.00,,,0.00,Wunderground v.1.15,2013-04-19 16:46:00,
2013-04-19 12:48:00,63.2,59.3,29.76,SSW,201,2.0,7.0,87,0.00,,,0.00,Wunderground v.1.15,2013-04-19 16:48:00,
2013-04-19 12:50:00,63.0,59.1,29.76,South,190,4.0,10.0,87,0.00,,,0.00,Wunderground v.1.15,2013-04-19 16:50:00,
2013-04-19 12:51:00,62.9,59.3,29.76,WSW,258,0.0,10.0,88,0.00,,,0.00,Wunderground v.1.15,2013-04-19 16:51:00,
2013-04-19 12:52:00,62.9,59.3,29.76,SE,142,1.0,10.0,88,0.00,,,0.00,Wunderground v.1.15,2013-04-19 16:52:00,
2013-04-19 12:55:00,62.6,59.0,29.76,SW,223,2.0,10.0,88,0.00,,,0.00,Wunderground v.1.15,2013-04-19 16:55:00,
2013-04-19 12:56:00,62.5,58.9,29.76,SSW,202,1.0,10.0,88,0.00,,,0.00,Wunderground v.1.15,2013-04-19 16:56:00,
2013-04-19 12:57:00,62.3,58.7,29.76,WNW,287,5.0,10.0,88,0.00,,,0.00,Wunderground v.1.15,2013-04-19 16:57:00,
2013-04-19 12:58:00,62.3,58.7,29.76,NW,315,2.0,10.0,88,0.00,,,0.00,Wunderground v.1.15,2013-04-19 16:58:00,
2013-04-19 13:00:00,62.2,58.9,29.75,SSE,163,3.0,7.0,89,0.00,,,0.00,Wunderground v.1.15,2013-04-19 17:00:00,
2013-04-19 13:01:00,62.1,58.8,29.75,SSE,160,1.0,7.0,89,0.00,,,0.00,Wunderground v.1.15,2013-04-19 17:01:00,
2013-04-19 13:03:00,62.1,58.8,29.75,ESE,116,2.0,7.0,89,0.00,,,0.00,Wunderground v.1.15,2013-04-19 17:03:00,
2013-04-19 13:05:00,62.1,58.8,29.75,NE,43,6.0,7.0,89,0.00,,,0.00,Wunderground v.1.15,2013-04-19 17:05:00,
2013-04-19 13:07:00,62.1,58.8,29.75,SSW,204,4.0,7.0,89,0.00,,,0.00,Wunderground v.1.15,2013-04-19 17:07:00,
2013-04-19 13:08:00,62.2,58.9,29.75,East,90,3.0,7.0,89,0.00,,,0.00,Wunderground v.1.15,2013-04-19 17:08:00,
2013-04-19 13:09:00,62.2,58.9,29.75,South,191,5.0,6.0,89,0.00,,,0.00,Wunderground v.1.15,2013-04-19 17:09:00,
2013-04-19 13:10:00,62.3,58.7,29.75,SSE,157,1.0,6.0,88,0.00,,,0.00,Wunderground v.1.15,2013-04-19 17:10:00,
2013-04-19 13:12:00,62.4,58.8,29.74,SSW,202,2.0,6.0,88,0.00,,,0.00,Wunderground v.1.15,2013-04-19 17:12:00,
2013-04-19 13:14:00,62.6,59.0,29.74,South,173,2.0,10.0,88,0.00,,,0.00,Wunderground v.1.15,2013-04-19 17:14:00,
2013-04-19 13:15:00,62.6,58.7,29.74,ESE,111,8.0,10.0,87,0.00,,,0.00,Wunderground v.1.15,2013-04-19 17:15:00,
2013-04-19 13:16:00,62.7,58.8,29.74,SSE,168,2.0,10.0,87,0.00,,,0.00,Wunderground v.1.15,2013-04-19 17:16:00,
2013-04-19 13:20:00,63.1,59.2,29.74,NE,55,3.0,4.0,87,0.00,,,0.00,Wunderground v.1.15,2013-04-19 17:20:00,
2013-04-19 13:22:00,63.2,59.3,29.73,SE,132,2.0,4.0,87,0.00,,,0.00,Wunderground v.1.15,2013-04-19 17:22:00,
2013-04-19 13:23:00,63.5,59.6,29.73,East,98,5.0,6.0,87,0.00,,,0.00,Wunderground v.1.15,2013-04-19 17:23:00,
2013-04-19 13:26:00,63.9,60.0,29.73,West,271,3.0,7.0,87,0.00,,,0.00,Wunderground v.1.15,2013-04-19 17:26:00,
2013-04-19 13:27:00,64.1,59.8,29.73,NW,306,3.0,7.0,86,0.00,,,0.00,Wunderground v.1.15,2013-04-19 17:27:00,
2013-04-19 13:28:00,64.1,59.8,29.73,West,277,3.0,7.0,86,0.00,,,0.00,Wunderground v.1.15,2013-04-19 17:28:00,
2013-04-19 13:29:00,64.2,59.6,29.74,WSW,241,9.0,9.0,85,0.00,,,0.00,Wunderground v.1.15,2013-04-19 17:29:00,
2013-04-19 13:30:00,64.3,59.4,29.74,West,272,2.0,9.0,84,0.00,,,0.00,Wunderground v.1.15,2013-04-19 17:30:00,
2013-04-19 13:31:00,64.3,59.4,29.74,ESE,111,0.0,9.0,84,0.00,,,0.00,Wunderground v.1.15,2013-04-19 17:31:00,
2013-04-19 13:33:00,64.4,59.5,29.74,SSW,209,4.0,9.0,84,0.00,,,0.00,Wunderground v.1.15,2013-04-19 17:33:00,
2013-04-19 13:34:00,64.4,59.5,29.74,NW,308,5.0,9.0,84,0.00,,,0.00,Wunderground v.1.15,2013-04-19 17:34:00,
2013-04-19 13:35:00,64.6,59.7,29.73,SSE,148,1.0,9.0,84,0.00,,,0.00,Wunderground v.1.15,2013-04-19 17:35:00,
2013-04-19 13:36:00,64.6,59.7,29.73,WNW,288,4.0,9.0,84,0.00,,,0.00,Wunderground v.1.15,2013-04-19 17:36:00,
2013-04-19 13:37:00,64.7,59.8,29.73,ESE,116,5.0,9.0,84,0.00,,,0.00,Wunderground v.1.15,2013-04-19 17:37:00,
2013-04-19 13:38:00,64.9,59.6,29.73,SSW,203,6.0,9.0,83,0.00,,,0.00,Wunderground v.1.15,2013-04-19 17:38:00,
2013-04-19 13:39:00,65.1,59.8,29.74,NW,324,5.0,8.0,83,0.00,,,0.00,Wunderground v.1.15,2013-04-19 17:39:00,
2013-04-19 13:41:00,65.4,59.8,29.74,ENE,75,3.0,15.0,82,0.00,,,0.00,Wunderground v.1.15,2013-04-19 17:41:00,
2013-04-19 13:42:00,65.4,59.8,29.74,SSE,154,3.0,15.0,82,0.00,,,0.00,Wunderground v.1.15,2013-04-19 17:42:00,
2013-04-19 13:43:00,65.5,59.5,29.73,WSW,251,4.0,15.0,81,0.00,,,0.00,Wunderground v.1.15,2013-04-19 17:43:00,
2013-04-19 13:44:00,65.6,60.0,29.74,WNW,292,6.0,15.0,82,0.00,,,0.00,Wunderground v.1.15,2013-04-19 17:44:00,
2013-04-19 13:46:00,65.8,59.8,29.73,NE,43,9.0,15.0,81,0.00,,,0.00,Wunderground v.1.15,2013-04-19 17:46:00,
2013-04-19 13:48:00,66.0,60.0,29.72,SW,225,11.0,15.0,81,0.00,,,0.00,Wunderground v.1.15,2013-04-19 17:48:00,
2013-04-19 13:50:00,66.2,59.8,29.72,SW,229,4.0,12.0,80,0.00,,,0.00,Wunderground v.1.15,2013-04-19 17:50:00,
2013-04-19 13:51:00,66.2,59.8,29.72,ESE,113,3.0,12.0,80,0.00,,,0.00,Wunderground v.1.15,2013-04-19 17:51:00,
2013-04-19 13:53:00,66.5,60.1,29.72,East,92,1.0,12.0,80,0.00,,,0.00,Wunderground v.1.15,2013-04-19 17:53:00,
2013-04-19 13:54:00,66.6,60.6,29.72,WNW,285,10.0,12.0,81,0.00,,,0.00,Wunderground v.1.15,2013-04-19 17:54:00,
2013-04-19 13:56:00,66.7,60.0,29.72,SSE,147,5.0,12.0,79,0.00,,,0.00,Wunderground v.1.15,2013-04-19 17:56:00,
2013-04-19 13:58:00,66.9,60.2,29.72,NW,312,7.0,15.0,79,0.00,,,0.00,Wunderground v.1.15,2013-04-19 17:58:00,
2013-04-19 13:59:00,67.0,59.9,29.72,SSE,157,5.0,5.0,78,0.00,,,0.00,Wunderground v.1.15,2013-04-19 17:59:00,
2013-04-19 14:01:00,67.2,60.1,29.72,South,171,3.0,7.0,78,0.00,,,0.00,Wunderground v.1.15,2013-04-19 18:01:00,
2013-04-19 14:02:00,67.4,59.9,29.73,South,176,3.0,7.0,77,0.00,,,0.00,Wunderground v.1.15,2013-04-19 18:02:00,
2013-04-19 14:04:00,67.6,60.1,29.73,SE,124,5.0,7.0,77,0.00,,,0.00,Wunderground v.1.15,2013-04-19 18:04:00,
2013-04-19 14:05:00,67.7,59.9,29.72,East,92,5.0,19.0,76,0.00,,,0.00,Wunderground v.1.15,2013-04-19 18:05:00,
2013-04-19 14:06:00,67.7,59.5,29.72,SSE,147,4.0,19.0,75,0.00,,,0.00,Wunderground v.1.15,2013-04-19 18:06:00,
2013-04-19 14:08:00,67.7,59.9,29.72,SW,221,6.0,19.0,76,0.00,,,0.00,Wunderground v.1.15,2013-04-19 18:08:00,
2013-04-19 14:10:00,67.7,59.5,29.72,SSE,164,6.0,11.0,75,0.00,,,0.00,Wunderground v.1.15,2013-04-19 18:10:00,
2013-04-19 14:11:00,67.6,59.4,29.72,South,187,8.0,11.0,75,0.00,,,0.00,Wunderground v.1.15,2013-04-19 18:11:00,
2013-04-19 14:13:00,67.5,59.7,29.72,SW,229,6.0,11.0,76,0.00,,,0.00,Wunderground v.1.15,2013-04-19 18:13:00,
2013-04-19 14:16:00,67.4,59.6,29.72,West,265,13.0,13.0,76,0.00,,,0.00,Wunderground v.1.15,2013-04-19 18:16:00,
2013-04-19 14:17:00,67.3,59.5,29.72,WNW,292,12.0,13.0,76,0.00,,,0.00,Wunderground v.1.15,2013-04-19 18:17:00,
2013-04-19 14:18:00,67.3,59.5,29.72,SSW,199,3.0,13.0,76,0.00,,,0.00,Wunderground v.1.15,2013-04-19 18:18:00,
2013-04-19 14:19:00,67.2,59.4,29.72,SE,143,3.0,6.0,76,0.00,,,0.00,Wunderground v.1.15,2013-04-19 18:19:00,
2013-04-19 14:20:00,67.2,59.4,29.72,West,273,2.0,6.0,76,0.00,,,0.00,Wunderground v.1.15,2013-04-19 18:20:00,
2013-04-19 14:22:00,67.2,59.4,29.72,SSE,165,6.0,17.0,76,0.00,,,0.00,Wunderground v.1.15,2013-04-19 18:22:00,
2013-04-19 14:24:00,67.1,59.3,29.72,SSE,164,5.0,17.0,76,0.00,,,0.00,Wunderground v.1.15,2013-04-19 18:24:00,
2013-04-19 14:25:00,67.1,59.3,29.72,SW,230,2.0,17.0,76,0.00,,,0.00,Wunderground v.1.15,2013-04-19 18:25:00,
2013-04-19 14:28:00,67.0,59.5,29.72,SSW,192,3.0,17.0,77,0.00,,,0.00,Wunderground v.1.15,2013-04-19 18:28:00,
2013-04-19 14:30:00,66.9,59.8,29.72,SW,227,5.0,7.0,78,0.00,,,0.00,Wunderground v.1.15,2013-04-19 18:30:00,
2013-04-19 14:32:00,66.8,59.4,29.72,WNW,290,10.0,10.0,77,0.00,,,0.00,Wunderground v.1.15,2013-04-19 18:32:00,
2013-04-19 14:35:00,67.0,59.5,29.72,SSE,157,3.0,10.0,77,0.00,,,0.00,Wunderground v.1.15,2013-04-19 18:35:00,
2013-04-19 14:36:00,67.0,59.5,29.72,South,177,2.0,10.0,77,0.00,,,0.00,Wunderground v.1.15,2013-04-19 18:36:00,
2013-04-19 14:37:00,67.1,59.6,29.72,ESE,103,10.0,10.0,77,0.00,,,0.00,Wunderground v.1.15,2013-04-19 18:37:00,
2013-04-19 14:38:00,67.1,59.3,29.72,SSW,202,5.0,10.0,76,0.00,,,0.00,Wunderground v.1.15,2013-04-19 18:38:00,
2013-04-19 14:41:00,67.2,59.4,29.72,West,272,6.0,16.0,76,0.00,,,0.00,Wunderground v.1.15,2013-04-19 18:41:00,
2013-04-19 14:42:00,67.2,59.7,29.72,WSW,251,6.0,16.0,77,0.00,,,0.00,Wunderground v.1.15,2013-04-19 18:42:00,
2013-04-19 14:44:00,67.2,59.7,29.72,WNW,298,5.0,16.0,77,0.00,,,0.00,Wunderground v.1.15,2013-04-19 18:44:00,
2013-04-19 14:45:00,67.2,59.7,29.72,ESE,107,7.0,16.0,77,0.00,,,0.00,Wunderground v.1.15,2013-04-19 18:45:00,
2013-04-19 14:46:00,67.2,59.4,29.72,NW,306,2.0,16.0,76,0.00,,,0.00,Wunderground v.1.15,2013-04-19 18:46:00,
2013-04-19 14:47:00,67.2,59.7,29.72,SW,221,2.0,16.0,77,0.00,,,0.00,Wunderground v.1.15,2013-04-19 18:47:00,
2013-04-19 14:48:00,67.1,59.6,29.72,West,281,2.0,16.0,77,0.00,,,0.00,Wunderground v.1.15,2013-04-19 18:48:00,
2013-04-19 14:50:00,67.0,59.5,29.72,WNW,286,2.0,6.0,77,0.00,,,0.00,Wunderground v.1.15,2013-04-19 18:50:00,
2013-04-19 14:51:00,67.0,59.5,29.72,NE,51,2.0,6.0,77,0.00,,,0.00,Wunderground v.1.15,2013-04-19 18:51:00,
2013-04-19 14:53:00,66.9,59.5,29.72,West,274,5.0,6.0,77,0.00,,,0.00,Wunderground v.1.15,2013-04-19 18:53:00,
2013-04-19 14:56:00,66.6,59.5,29.72,SW,221,4.0,15.0,78,0.00,,,0.00,Wunderground v.1.15,2013-04-19 18:56:00,
2013-04-19 14:57:00,66.5,59.4,29.72,ENE,69,2.0,15.0,78,0.00,,,0.00,Wunderground v.1.15,2013-04-19 18:57:00,
2013-04-19 14:58:00,66.4,59.3,29.72,SSE,165,2.0,15.0,78,0.00,,,0.00,Wunderground v.1.15,2013-04-19 18:58:00,
2013-04-19 15:02:00,66.1,59.4,29.71,West,259,2.0,6.0,79,0.00,,,0.00,Wunderground v.1.15,2013-04-19 19:02:00,
2013-04-19 15:03:00,66.1,59.7,29.71,WSW,257,9.0,9.0,80,0.00,,,0.00,Wunderground v.1.15,2013-04-19 19:03:00,
2013-04-19 15:05:00,66.0,59.7,29.71,SSW,210,3.0,9.0,80,0.00,,,0.00,Wunderground v.1.15,2013-04-19 19:05:00,
2013-04-19 15:08:00,65.9,60.2,29.70,South,174,0.0,9.0,82,0.00,,,0.00,Wunderground v.1.15,2013-04-19 19:08:00,
2013-04-19 15:09:00,65.9,60.2,29.70,NE,53,1.0,4.0,82,0.00,,,0.00,Wunderground v.1.15,2013-04-19 19:09:00,
2013-04-19 15:10:00,66.0,60.0,29.70,SSE,163,2.0,6.0,81,0.00,,,0.00,Wunderground v.1.15,2013-04-19 19:10:00,
2013-04-19 15:12:00,66.0,60.0,29.70,WSW,250,4.0,7.0,81,0.00,,,0.00,Wunderground v.1.15,2013-04-19 19:12:00,
2013-04-19 15:13:00,66.1,60.1,29.70,WSW,242,2.0,7.0,81,0.00,,,0.00,Wunderground v.1.15,2013-04-19 19:13:00,
2013-04-19 15:14:00,66.1,60.1,29.70,WSW,242,0.0,7.0,81,0.00,,,0.00,Wunderground v.1.15,2013-04-19 19:14:00,
2013-04-19 15:15:00,66.1,60.1,29.70,SSE,159,2.0,7.0,81,0.00,,,0.00,Wunderground v.1.15,2013-04-19 19:15:00,
2013-04-19 15:16:00,66.2,60.2,29.70,West,259,4.0,8.0,81,0.00,,,0.00,Wunderground v.1.15,2013-04-19 19:16:00,
2013-04-19 15:17:00,66.2,59.8,29.69,WSW,243,3.0,8.0,80,0.00,,,0.00,Wunderground v.1.15,2013-04-19 19:17:00,
2013-04-19 15:19:00,66.3,59.9,29.69,East,100,3.0,5.0,80,0.00,,,0.00,Wunderground v.1.15,2013-04-19 19:19:00,
2013-04-19 15:20:00,66.3,59.9,29.69,NE,42,2.0,8.0,80,0.00,,,0.00,Wunderground v.1.15,2013-04-19 19:20:00,
2013-04-19 15:23:00,66.6,60.2,29.69,SSW,208,5.0,8.0,80,0.00,,,0.00,Wunderground v.1.15,2013-04-19 19:23:00,
2013-04-19 15:24:00,66.6,60.2,29.69,WNW,294,3.0,8.0,80,0.00,,,0.00,Wunderground v.1.15,2013-04-19 19:24:00,
2013-04-19 15:26:00,66.8,60.1,29.69,North,355,2.0,8.0,79,0.00,,,0.00,Wunderground v.1.15,2013-04-19 19:26:00,
2013-04-19 15:28:00,67.0,59.9,29.69,WNW,292,4.0,8.0,78,0.00,,,0.00,Wunderground v.1.15,2013-04-19 19:28:00,
2013-04-19 15:30:00,67.0,59.9,29.68,ESE,118,8.0,8.0,78,0.00,,,0.00,Wunderground v.1.15,2013-04-19 19:30:00,
2013-04-19 15:31:00,67.0,59.9,29.68,ENE,66,8.0,8.0,78,0.00,,,0.00,Wunderground v.1.15,2013-04-19 19:31:00,
2013-04-19 15:32:00,67.0,59.9,29.68,SSW,200,4.0,8.0,78,0.00,,,0.00,Wunderground v.1.15,2013-04-19 19:32:00,
2013-04-19 15:34:00,67.0,59.9,29.68,SSE,168,5.0,8.0,78,0.00,,,0.00,Wunderground v.1.15,2013-04-19 19:34:00,
2013-04-19 15:36:00,67.0,59.9,29.68,WSW,255,0.0,8.0,78,0.00,,,0.00,Wunderground v.1.15,2013-04-19 19:36:00,
2013-04-19 15:37:00,67.0,59.9,29.67,SW,219,2.0,8.0,78,0.00,,,0.00,Wunderground v.1.15,2013-04-19 19:37:00,
2013-04-19 15:39:00,67.1,60.0,29.67,North,360,3.0,6.0,78,0.00,,,0.00,Wunderground v.1.15,2013-04-19 19:39:00,
2013-04-19 15:41:00,67.1,60.0,29.66,South,169,3.0,9.0,78,0.00,,,0.00,Wunderground v.1.15,2013-04-19 19:41:00,
2013-04-19 15:44:00,67.2,60.1,29.66,SSE,167,2.0,9.0,78,0.00,,,0.00,Wunderground v.1.15,2013-04-19 19:44:00,
2013-04-19 15:47:00,67.4,60.3,29.66,SSW,197,4.0,11.0,78,0.00,,,0.00,Wunderground v.1.15,2013-04-19 19:47:00,
2013-04-19 15:50:00,67.6,60.1,29.66,SSE,157,3.0,8.0,77,0.00,,,0.00,Wunderground v.1.15,2013-04-19 19:50:00,
2013-04-19 15:53:00,67.8,60.3,29.65,SSE,160,7.0,10.0,77,0.00,,,0.00,Wunderground v.1.15,2013-04-19 19:53:00,
2013-04-19 15:55:00,67.9,60.4,29.65,NNW,336,4.0,10.0,77,0.00,,,0.00,Wunderground v.1.15,2013-04-19 19:55:00,
2013-04-19 15:56:00,68.0,60.5,29.65,SSW,209,2.0,10.0,77,0.00,,,0.00,Wunderground v.1.15,2013-04-19 19:56:00,
2013-04-19 15:58:00,68.1,60.2,29.65,WNW,302,6.0,10.0,76,0.00,,,0.00,Wunderground v.1.15,2013-04-19 19:58:00,
2013-04-19 16:01:00,68.1,60.2,29.65,South,182,4.0,8.0,76,0.00,,,0.00,Wunderground v.1.15,2013-04-19 20:01:00,
2013-04-19 16:02:00,68.1,60.2,29.65,East,84,5.0,8.0,76,0.00,,,0.00,Wunderground v.1.15,2013-04-19 20:02:00,
2013-04-19 16:03:00,68.1,60.2,29.65,WSW,255,2.0,8.0,76,0.00,,,0.00,Wunderground v.1.15,2013-04-19 20:03:00,
2013-04-19 16:04:00,68.1,60.2,29.65,ESE,105,2.0,8.0,76,0.00,,,0.00,Wunderground v.1.15,2013-04-19 20:04:00,
2013-04-19 16:06:00,68.2,60.3,29.64,SSE,163,1.0,8.0,76,0.00,,,0.00,Wunderground v.1.15,2013-04-19 20:06:00,
2013-04-19 16:07:00,68.3,60.8,29.64,South,172,9.0,9.0,77,0.00,,,0.00,Wunderground v.1.15,2013-04-19 20:07:00,
2013-04-19 16:09:00,68.2,60.7,29.64,SE,143,8.0,8.0,77,0.00,,,0.00,Wunderground v.1.15,2013-04-19 20:09:00,
2013-04-19 16:11:00,68.1,60.2,29.64,SW,214,0.0,8.0,76,0.00,,,0.00,Wunderground v.1.15,2013-04-19 20:11:00,
2013-04-19 16:13:00,68.1,60.2,29.64,SE,128,8.0,12.0,76,0.00,,,0.00,Wunderground v.1.15,2013-04-19 20:13:00,
2013-04-19 16:15:00,68.0,60.2,29.64,West,281,5.0,12.0,76,0.00,,,0.00,Wunderground v.1.15,2013-04-19 20:15:00,
2013-04-19 16:16:00,67.9,60.4,29.63,ESE,116,3.0,12.0,77,0.00,,,0.00,Wunderground v.1.15,2013-04-19 20:16:00,
2013-04-19 16:18:00,67.8,60.3,29.63,WSW,237,3.0,12.0,77,0.00,,,0.00,Wunderground v.1.15,2013-04-19 20:18:00,
2013-04-19 16:20:00,67.7,60.2,29.63,SSE,154,4.0,8.0,77,0.00,,,0.00,Wunderground v.1.15,2013-04-19 20:20:00,
2013-04-19 16:21:00,67.7,60.2,29.63,West,266,5.0,10.0,77,0.00,,,0.00,Wunderground v.1.15,2013-04-19 20:21:00,
2013-04-19 16:23:00,67.7,60.2,29.63,WSW,240,4.0,10.0,77,0.00,,,0.00,Wunderground v.1.15,2013-04-19 20:23:00,
2013-04-19 16:25:00,67.6,60.1,29.63,SE,130,4.0,10.0,77,0.00,,,0.00,Wunderground v.1.15,2013-04-19 20:25:00,
2013-04-19 16:26:00,67.6,60.1,29.63,WSW,254,7.0,10.0,77,0.00,,,0.00,Wunderground v.1.15,2013-04-19 20:26:00,
2013-04-19 16:27:00,67.6,60.1,29.63,WSW,241,7.0,10.0,77,0.00,,,0.00,Wunderground v.1.15,2013-04-19 20:27:00,
2013-04-19 16:31:00,67.5,60.4,29.62,North,355,2.0,7.0,78,0.00,,,0.00,Wunderground v.1.15,2013-04-19 20:31:00,
2013-04-19 16:32:00,67.5,60.0,29.62,South,180,6.0,7.0,77,0.00,,,0.00,Wunderground v.1.15,2013-04-19 20:32:00,
2013-04-19 16:33:00,67.5,60.0,29.62,SSW,207,3.0,7.0,77,0.00,,,0.00,Wunderground v.1.15,2013-04-19 20:33:00,
2013-04-19 16:34:00,67.5,60.0,29.62,SE,136,0.0,7.0,77,0.00,,,0.00,Wunderground v.1.15,2013-04-19 20:34:00,
2013-04-19 16:37:00,67.5,60.0,29.61,SSE,160,4.0,7.0,77,0.00,,,0.00,Wunderground v.1.15,2013-04-19 20:37:00,
2013-04-19 16:39:00,67.5,60.0,29.61,SSE,166,10.0,10.0,77,0.00,,,0.00,Wunderground v.1.15,2013-04-19 20:39:00,
2013-04-19 16:40:00,67.5,60.0,29.61,South,179,5.0,10.0,77,0.00,,,0.00,Wunderground v.1.15,2013-04-19 20:40:00,
2013-04-19 16:42:00,67.4,59.9,29.60,SSE,163,6.0,14.0,77,0.00,,,0.00,Wunderground v.1.15,2013-04-19 20:42:00,
2013-04-19 16:43:00,67.4,59.9,29.60,ESE,107,4.0,14.0,77,0.00,,,0.00,Wunderground v.1.15,2013-04-19 20:43:00,
2013-04-19 16:44:00,67.5,60.0,29.60,SE,141,5.0,14.0,77,0.00,,,0.00,Wunderground v.1.15,2013-04-19 20:44:00,
2013-04-19 16:45:00,67.5,60.0,29.60,SE,124,6.0,14.0,77,0.00,,,0.00,Wunderground v.1.15,2013-04-19 20:45:00,
2013-04-19 16:47:00,67.5,60.0,29.58,SE,142,3.0,14.0,77,0.00,,,0.00,Wunderground v.1.15,2013-04-19 20:47:00,
2013-04-19 16:49:00,67.5,60.0,29.58,South,185,2.0,4.0,77,0.00,,,0.00,Wunderground v.1.15,2013-04-19 20:49:00,
2013-04-19 16:51:00,67.5,60.0,29.58,SSW,194,3.0,4.0,77,0.00,,,0.00,Wunderground v.1.15,2013-04-19 20:51:00,
2013-04-19 16:53:00,67.5,60.0,29.58,South,190,1.0,10.0,77,0.00,,,0.00,Wunderground v.1.15,2013-04-19 20:53:00,
2013-04-19 16:55:00,67.5,59.7,29.57,ESE,119,3.0,10.0,76,0.00,,,0.00,Wunderground v.1.15,2013-04-19 20:55:00,
2013-04-19 16:56:00,67.6,59.8,29.56,East,91,3.0,10.0,76,0.00,,,0.00,Wunderground v.1.15,2013-04-19 20:56:00,
2013-04-19 16:57:00,67.5,59.7,29.56,South,191,8.0,10.0,76,0.00,,,0.00,Wunderground v.1.15,2013-04-19 20:57:00,
2013-04-19 16:58:00,67.6,59.8,29.55,ESE,103,3.0,10.0,76,0.00,,,0.00,Wunderground v.1.15,2013-04-19 20:58:00,
2013-04-19 16:59:00,67.6,59.8,29.55,WSW,243,5.0,6.0,76,0.00,,,0.00,Wunderground v.1.15,2013-04-19 20:59:00,
2013-04-19 17:00:00,67.6,59.8,29.55,East,86,3.0,6.0,76,0.00,,,0.00,Wunderground v.1.15,2013-04-19 21:00:00,
2013-04-19 17:02:00,67.6,59.8,29.55,South,171,6.0,6.0,76,0.00,,,0.00,Wunderground v.1.15,2013-04-19 21:02:00,
2013-04-19 17:03:00,67.6,59.8,29.56,SE,142,6.0,12.0,76,0.00,,,0.00,Wunderground v.1.15,2013-04-19 21:03:00,
2013-04-19 17:04:00,67.6,59.8,29.56,East,82,3.0,12.0,76,0.00,,,0.00,Wunderground v.1.15,2013-04-19 21:04:00,
2013-04-19 17:05:00,67.7,59.9,29.56,WSW,251,4.0,12.0,76,0.00,,,0.00,Wunderground v.1.15,2013-04-19 21:05:00,
2013-04-19 17:10:00,67.7,59.5,29.55,SE,141,4.0,7.0,75,0.00,,,0.00,Wunderground v.1.15,2013-04-19 21:10:00,
2013-04-19 17:11:00,67.7,59.9,29.55,SSW,196,5.0,7.0,76,0.00,,,0.00,Wunderground v.1.15,2013-04-19 21:11:00,
2013-04-19 17:12:00,67.7,59.9,29.55,ESE,105,5.0,7.0,76,0.00,,,0.00,Wunderground v.1.15,2013-04-19 21:12:00,
2013-04-19 17:15:00,67.7,59.9,29.54,SE,142,7.0,7.0,76,0.00,,,0.00,Wunderground v.1.15,2013-04-19 21:15:00,
2013-04-19 17:17:00,67.7,59.9,29.54,SSE,166,3.0,12.0,76,0.00,,,0.00,Wunderground v.1.15,2013-04-19 21:17:00,
2013-04-19 17:18:00,67.7,59.9,29.53,ESE,103,3.0,12.0,76,0.00,,,0.00,Wunderground v.1.15,2013-04-19 21:18:00,
2013-04-19 17:20:00,67.7,59.9,29.53,SSE,148,4.0,7.0,76,0.00,,,0.00,Wunderground v.1.15,2013-04-19 21:20:00,
2013-04-19 17:21:00,67.7,59.9,29.53,SSE,163,2.0,7.0,76,0.00,,,0.00,Wunderground v.1.15,2013-04-19 21:21:00,
2013-04-19 17:23:00,67.7,59.9,29.54,ESE,121,8.0,11.0,76,0.00,,,0.00,Wunderground v.1.15,2013-04-19 21:23:00,
2013-04-19 17:24:00,67.7,59.9,29.54,SW,229,6.0,11.0,76,0.00,,,0.00,Wunderground v.1.15,2013-04-19 21:24:00,
2013-04-19 17:25:00,67.8,60.0,29.55,ESE,117,4.0,11.0,76,0.00,,,0.00,Wunderground v.1.15,2013-04-19 21:25:00,
2013-04-19 17:29:00,67.8,60.0,29.55,SSE,148,8.0,8.0,76,0.00,,,0.00,Wunderground v.1.15,2013-04-19 21:29:00,
2013-04-19 17:30:00,67.8,60.0,29.55,ESE,111,2.0,8.0,76,0.00,,,0.00,Wunderground v.1.15,2013-04-19 21:30:00,
2013-04-19 17:32:00,67.8,60.0,29.54,SSE,151,3.0,11.0,76,0.00,,,0.00,Wunderground v.1.15,2013-04-19 21:32:00,
2013-04-19 17:34:00,67.7,59.9,29.55,SSE,152,3.0,11.0,76,0.00,,,0.00,Wunderground v.1.15,2013-04-19 21:34:00,
2013-04-19 17:35:00,67.7,59.9,29.55,SSE,164,4.0,11.0,76,0.00,,,0.00,Wunderground v.1.15,2013-04-19 21:35:00,
2013-04-19 17:36:00,67.7,59.9,29.55,SSE,147,10.0,11.0,76,0.00,,,0.00,Wunderground v.1.15,2013-04-19 21:36:00,
2013-04-19 17:38:00,67.8,60.0,29.57,WSW,240,5.0,11.0,76,0.00,,,0.00,Wunderground v.1.15,2013-04-19 21:38:00,
2013-04-19 17:40:00,67.8,60.0,29.57,ESE,106,4.0,8.0,76,0.00,,,0.00,Wunderground v.1.15,2013-04-19 21:40:00,
2013-04-19 17:43:00,67.9,60.1,29.57,SSW,207,2.0,11.0,76,0.00,,,0.00,Wunderground v.1.15,2013-04-19 21:43:00,
2013-04-19 17:45:00,67.9,60.1,29.57,South,169,1.0,11.0,76,0.00,,,0.00,Wunderground v.1.15,2013-04-19 21:45:00,
2013-04-19 17:49:00,67.9,60.1,29.57,South,179,5.0,5.0,76,0.00,,,0.00,Wunderground v.1.15,2013-04-19 21:49:00,
2013-04-19 17:50:00,67.8,60.0,29.57,East,89,5.0,8.0,76,0.00,,,0.00,Wunderground v.1.15,2013-04-19 21:50:00,
2013-04-19 17:51:00,67.8,60.0,29.57,ESE,122,2.0,8.0,76,0.00,,,0.00,Wunderground v.1.15,2013-04-19 21:51:00,
2013-04-19 17:52:00,67.9,60.1,29.57,SSW,207,11.0,11.0,76,0.00,,,0.00,Wunderground v.1.15,2013-04-19 21:52:00,
2013-04-19 17:55:00,67.9,60.1,29.57,SSE,166,3.0,11.0,76,0.00,,,0.00,Wunderground v.1.15,2013-04-19 21:55:00,
2013-04-19 17:56:00,67.9,60.1,29.57,SE,130,5.0,11.0,76,0.00,,,0.00,Wunderground v.1.15,2013-04-19 21:56:00,
2013-04-19 17:57:00,67.9,60.1,29.58,SSE,166,4.0,11.0,76,0.00,,,0.00,Wunderground v.1.15,2013-04-19 21:57:00,
2013-04-19 17:58:00,67.9,60.1,29.58,South,178,7.0,11.0,76,0.00,,,0.00,Wunderground v.1.15,2013-04-19 21:58:00,
2013-04-19 18:00:00,67.9,60.1,29.58,SE,144,2.0,5.0,76,0.00,,,0.00,Wunderground v.1.15,2013-04-19 22:00:00,
2013-04-19 18:01:00,67.9,60.1,29.58,SW,231,11.0,11.0,76,0.00,,,0.00,Wunderground v.1.15,2013-04-19 22:01:00,
2013-04-19 18:03:00,67.9,60.1,29.58,SW,219,6.0,11.0,76,0.00,,,0.00,Wunderground v.1.15,2013-04-19 22:03:00,
2013-04-19 18:05:00,67.9,60.1,29.58,ESE,107,3.0,11.0,76,0.00,,,0.00,Wunderground v.1.15,2013-04-19 22:05:00,
2013-04-19 18:07:00,67.9,60.1,29.58,SSE,162,6.0,11.0,76,0.00,,,0.00,Wunderground v.1.15,2013-04-19 22:07:00,
2013-04-19 18:08:00,67.9,60.1,29.58,East,94,7.0,11.0,76,0.00,,,0.00,Wunderground v.1.15,2013-04-19 22:08:00,
2013-04-19 18:09:00,67.9,60.1,29.58,SW,229,4.0,4.0,76,0.00,,,0.00,Wunderground v.1.15,2013-04-19 22:09:00,
2013-04-19 18:10:00,67.9,60.1,29.58,South,188,2.0,8.0,76,0.00,,,0.00,Wunderground v.1.15,2013-04-19 22:10:00,
2013-04-19 18:11:00,67.8,60.0,29.58,South,176,1.0,8.0,76,0.00,,,0.00,Wunderground v.1.15,2013-04-19 22:11:00,
2013-04-19 18:13:00,67.8,60.0,29.58,SSE,155,6.0,8.0,76,0.00,,,0.00,Wunderground v.1.15,2013-04-19 22:13:00,
2013-04-19 18:14:00,67.9,60.1,29.58,SE,139,3.0,8.0,76,0.00,,,0.00,Wunderground v.1.15,2013-04-19 22:14:00,
2013-04-19 18:16:00,67.9,60.1,29.58,SSW,192,5.0,8.0,76,0.00,,,0.00,Wunderground v.1.15,2013-04-19 22:16:00,
2013-04-19 18:17:00,67.9,60.1,29.58,SSE,148,7.0,9.0,76,0.00,,,0.00,Wunderground v.1.15,2013-04-19 22:17:00,
2013-04-19 18:18:00,67.8,60.3,29.58,SE,134,1.0,9.0,77,0.00,,,0.00,Wunderground v.1.15,2013-04-19 22:18:00,
2013-04-19 18:21:00,67.8,60.3,29.58,SSW,202,3.0,7.0,77,0.00,,,0.00,Wunderground v.1.15,2013-04-19 22:21:00,
2013-04-19 18:22:00,67.7,60.2,29.58,SSW,208,7.0,11.0,77,0.00,,,0.00,Wunderground v.1.15,2013-04-19 22:22:00,
2013-04-19 18:24:00,67.7,60.2,29.58,SSW,198,4.0,11.0,77,0.00,,,0.00,Wunderground v.1.15,2013-04-19 22:24:00,
2013-04-19 18:26:00,67.7,60.2,29.58,SSE,154,6.0,11.0,77,0.00,,,0.00,Wunderground v.1.15,2013-04-19 22:26:00,
2013-04-19 18:28:00,67.7,60.2,29.58,ESE,113,0.0,11.0,77,0.00,,,0.00,Wunderground v.1.15,2013-04-19 22:28:00,
2013-04-19 18:30:00,67.7,60.2,29.58,WSW,243,3.0,4.0,77,0.00,,,0.00,Wunderground v.1.15,2013-04-19 22:30:00,
2013-04-19 18:32:00,67.7,60.2,29.58,WNW,291,2.0,12.0,77,0.00,,,0.00,Wunderground v.1.15,2013-04-19 22:32:00,
2013-04-19 18:33:00,67.7,60.2,29.58,ESE,104,4.0,12.0,77,0.00,,,0.00,Wunderground v.1.15,2013-04-19 22:33:00,
2013-04-19 18:35:00,67.6,60.1,29.58,ESE,113,8.0,12.0,77,0.00,,,0.00,Wunderground v.1.15,2013-04-19 22:35:00,
2013-04-19 18:38:00,67.6,60.5,29.58,SE,133,10.0,12.0,78,0.00,,,0.00,Wunderground v.1.15,2013-04-19 22:38:00,
2013-04-19 18:39:00,67.5,60.4,29.58,ESE,105,3.0,9.0,78,0.00,,,0.00,Wunderground v.1.15,2013-04-19 22:39:00,
2013-04-19 18:40:00,67.6,60.5,29.58,South,184,3.0,9.0,78,0.00,,,0.00,Wunderground v.1.15,2013-04-19 22:40:00,
2013-04-19 18:42:00,67.5,60.4,29.58,West,265,2.0,9.0,78,0.00,,,0.00,Wunderground v.1.15,2013-04-19 22:42:00,
2013-04-19 18:43:00,67.5,60.4,29.58,WSW,251,1.0,9.0,78,0.00,,,0.00,Wunderground v.1.15,2013-04-19 22:43:00,
2013-04-19 18:44:00,67.5,60.4,29.59,SE,131,4.0,9.0,78,0.00,,,0.00,Wunderground v.1.15,2013-04-19 22:44:00,
2013-04-19 18:45:00,67.5,60.4,29.58,ESE,121,4.0,9.0,78,0.00,,,0.00,Wunderground v.1.15,2013-04-19 22:45:00,
2013-04-19 18:47:00,67.4,60.3,29.58,WSW,238,5.0,9.0,78,0.00,,,0.00,Wunderground v.1.15,2013-04-19 22:47:00,
2013-04-19 18:48:00,67.4,60.3,29.58,ESE,110,7.0,9.0,78,0.00,,,0.00,Wunderground v.1.15,2013-04-19 22:48:00,
2013-04-19 18:49:00,67.4,60.3,29.58,ESE,115,4.0,4.0,78,0.00,,,0.00,Wunderground v.1.15,2013-04-19 22:49:00,
2013-04-19 18:51:00,67.4,60.3,29.58,ESE,109,3.0,6.0,78,0.00,,,0.00,Wunderground v.1.15,2013-04-19 22:51:00,
2013-04-19 18:53:00,67.3,60.2,29.58,SSE,154,7.0,8.0,78,0.00,,,0.00,Wunderground v.1.15,2013-04-19 22:53:00,
2013-04-19 18:54:00,67.3,60.2,29.58,East,79,7.0,8.0,78,0.00,,,0.00,Wunderground v.1.15,2013-04-19 22:54:00,
2013-04-19 18:56:00,67.3,60.2,29.58,SSE,157,3.0,11.0,78,0.00,,,0.00,Wunderground v.1.15,2013-04-19 22:56:00,
2013-04-19 18:59:00,67.3,60.2,29.57,SE,141,6.0,10.0,78,0.00,,,0.00,Wunderground v.1.15,2013-04-19 22:59:00,
2013-04-19 19:01:00,67.2,60.1,29.57,West,270,2.0,10.0,78,0.00,,,0.00,Wunderground v.1.15,2013-04-19 23:01:00,
2013-04-19 19:02:00,67.2,60.1,29.57,ESE,121,3.0,10.0,78,0.00,,,0.00,Wunderground v.1.15,2013-04-19 23:02:00,
2013-04-19 19:05:00,67.1,60.4,29.57,ESE,108,13.0,13.0,79,0.00,,,0.00,Wunderground v.1.15,2013-04-19 23:05:00,
2013-04-19 19:06:00,67.0,60.3,29.58,South,174,4.0,13.0,79,0.00,,,0.00,Wunderground v.1.15,2013-04-19 23:06:00,
2013-04-19 19:07:00,67.0,60.3,29.57,ENE,75,0.0,13.0,79,0.00,,,0.00,Wunderground v.1.15,2013-04-19 23:07:00,
2013-04-19 19:08:00,67.0,60.3,29.57,SE,138,2.0,13.0,79,0.00,,,0.00,Wunderground v.1.15,2013-04-19 23:08:00,
2013-04-19 19:10:00,66.9,60.2,29.57,SE,124,2.0,6.0,79,0.00,,,0.00,Wunderground v.1.15,2013-04-19 23:10:00,
2013-04-19 19:12:00,66.8,60.1,29.57,SE,127,2.0,7.0,79,0.00,,,0.00,Wunderground v.1.15,2013-04-19 23:12:00,
2013-04-19 19:13:00,66.7,60.0,29.57,ESE,121,5.0,7.0,79,0.00,,,0.00,Wunderground v.1.15,2013-04-19 23:13:00,
2013-04-19 19:14:00,66.7,60.0,29.57,South,188,5.0,7.0,79,0.00,,,0.00,Wunderground v.1.15,2013-04-19 23:14:00,
2013-04-19 19:15:00,66.7,60.0,29.57,SE,140,2.0,8.0,79,0.00,,,0.00,Wunderground v.1.15,2013-04-19 23:15:00,
2013-04-19 19:16:00,66.7,60.0,29.57,SW,214,3.0,8.0,79,0.00,,,0.00,Wunderground v.1.15,2013-04-19 23:16:00,
2013-04-19 19:17:00,66.7,60.0,29.57,NNW,329,3.0,8.0,79,0.00,,,0.00,Wunderground v.1.15,2013-04-19 23:17:00,
2013-04-19 19:19:00,66.6,60.2,29.56,NNW,337,5.0,5.0,80,0.00,,,0.00,Wunderground v.1.15,2013-04-19 23:19:00,
2013-04-19 19:21:00,66.7,60.3,29.56,ESE,107,5.0,7.0,80,0.00,,,0.00,Wunderground v.1.15,2013-04-19 23:21:00,
2013-04-19 19:23:00,66.7,60.3,29.56,South,182,3.0,7.0,80,0.00,,,0.00,Wunderground v.1.15,2013-04-19 23:23:00,
2013-04-19 19:24:00,66.6,60.2,29.56,WSW,242,9.0,9.0,80,0.00,,,0.00,Wunderground v.1.15,2013-04-19 23:24:00,
2013-04-19 19:26:00,66.6,60.2,29.56,SE,144,1.0,9.0,80,0.00,,,0.00,Wunderground v.1.15,2013-04-19 23:26:00,
2013-04-19 19:27:00,66.6,59.9,29.56,SE,136,1.0,9.0,79,0.00,,,0.00,Wunderground v.1.15,2013-04-19 23:27:00,
2013-04-19 19:28:00,66.6,60.2,29.56,West,268,3.0,10.0,80,0.00,,,0.00,Wunderground v.1.15,2013-04-19 23:28:00,
2013-04-19 19:30:00,66.6,60.2,29.56,SSE,149,6.0,6.0,80,0.00,,,0.00,Wunderground v.1.15,2013-04-19 23:30:00,
2013-04-19 19:31:00,66.6,60.2,29.56,East,96,6.0,8.0,80,0.00,,,0.00,Wunderground v.1.15,2013-04-19 23:31:00,
2013-04-19 19:32:00,66.5,60.1,29.57,SSE,161,7.0,8.0,80,0.00,,,0.00,Wunderground v.1.15,2013-04-19 23:32:00,
2013-04-19 19:33:00,66.5,60.1,29.57,East,94,2.0,8.0,80,0.00,,,0.00,Wunderground v.1.15,2013-04-19 23:33:00,
2013-04-19 19:35:00,66.5,60.1,29.56,SSE,149,6.0,11.0,80,0.00,,,0.00,Wunderground v.1.15,2013-04-19 23:35:00,
2013-04-19 19:37:00,66.5,60.1,29.56,South,180,1.0,11.0,80,0.00,,,0.00,Wunderground v.1.15,2013-04-19 23:37:00,
2013-04-19 19:38:00,66.5,60.1,29.56,WNW,293,2.0,11.0,80,0.00,,,0.00,Wunderground v.1.15,2013-04-19 23:38:00,
2013-04-19 19:40:00,66.4,60.0,29.56,NE,55,3.0,7.0,80,0.00,,,0.00,Wunderground v.1.15,2013-04-19 23:40:00,
2013-04-19 19:41:00,66.4,60.0,29.56,South,170,5.0,7.0,80,0.00,,,0.00,Wunderground v.1.15,2013-04-19 23:41:00,
2013-04-19 19:44:00,66.4,60.0,29.56,SE,132,9.0,9.0,80,0.00,,,0.00,Wunderground v.1.15,2013-04-19 23:44:00,
2013-04-19 19:45:00,66.4,60.0,29.56,SE,127,2.0,9.0,80,0.00,,,0.00,Wunderground v.1.15,2013-04-19 23:45:00,
2013-04-19 19:46:00,66.4,60.0,29.56,ENE,74,5.0,9.0,80,0.00,,,0.00,Wunderground v.1.15,2013-04-19 23:46:00,
2013-04-19 19:49:00,66.5,60.1,29.55,East,84,1.0,4.0,80,0.00,,,0.00,Wunderground v.1.15,2013-04-19 23:49:00,
2013-04-19 19:51:00,66.4,60.0,29.55,East,101,5.0,5.0,80,0.00,,,0.00,Wunderground v.1.15,2013-04-19 23:51:00,
2013-04-19 19:54:00,66.3,59.9,29.55,SW,219,3.0,7.0,80,0.00,,,0.00,Wunderground v.1.15,2013-04-19 23:54:00,
2013-04-19 19:55:00,66.3,60.3,29.55,SSW,194,6.0,7.0,81,0.00,,,0.00,Wunderground v.1.15,2013-04-19 23:55:00,
2013-04-19 19:56:00,66.3,60.3,29.55,SE,143,3.0,7.0,81,0.00,,,0.00,Wunderground v.1.15,2013-04-19 23:56:00,
2013-04-19 19:58:00,66.3,60.3,29.55,ESE,105,3.0,7.0,81,0.00,,,0.00,Wunderground v.1.15,2013-04-19 23:58:00,
2013-04-19 19:59:00,66.3,59.9,29.55,West,277,2.0,4.0,80,0.00,,,0.00,Wunderground v.1.15,2013-04-19 23:59:00,
2013-04-19 20:01:00,66.3,60.3,29.55,SW,223,4.0,6.0,81,0.00,,,0.00,Wunderground v.1.15,2013-04-20 00:01:00,
2013-04-19 20:02:00,66.3,60.3,29.54,SSW,206,2.0,7.0,81,0.00,,,0.00,Wunderground v.1.15,2013-04-20 00:02:00,
2013-04-19 20:03:00,66.3,60.3,29.54,ESE,104,4.0,7.0,81,0.00,,,0.00,Wunderground v.1.15,2013-04-20 00:03:00,
2013-04-19 20:06:00,66.3,60.3,29.55,SSW,209,3.0,7.0,81,0.00,,,0.00,Wunderground v.1.15,2013-04-20 00:06:00,
2013-04-19 20:07:00,66.2,60.2,29.55,South,188,0.0,7.0,81,0.00,,,0.00,Wunderground v.1.15,2013-04-20 00:07:00,
2013-04-19 20:08:00,66.2,60.2,29.55,South,186,4.0,11.0,81,0.00,,,0.00,Wunderground v.1.15,2013-04-20 00:08:00,
2013-04-19 20:10:00,66.2,60.2,29.55,SSE,161,6.0,7.0,81,0.00,,,0.00,Wunderground v.1.15,2013-04-20 00:10:00,
2013-04-19 20:11:00,66.2,60.2,29.55,West,275,1.0,7.0,81,0.00,,,0.00,Wunderground v.1.15,2013-04-20 00:11:00,
2013-04-19 20:12:00,66.2,60.2,29.55,SE,145,5.0,9.0,81,0.00,,,0.00,Wunderground v.1.15,2013-04-20 00:12:00,
2013-04-19 20:13:00,66.2,60.2,29.55,ESE,111,5.0,9.0,81,0.00,,,0.00,Wunderground v.1.15,2013-04-20 00:13:00,
2013-04-19 20:14:00,66.2,60.2,29.55,ENE,74,3.0,9.0,81,0.00,,,0.00,Wunderground v.1.15,2013-04-20 00:14:00,
2013-04-19 20:15:00,66.2,60.2,29.55,SE,143,2.0,9.0,81,0.00,,,0.00,Wunderground v.1.15,2013-04-20 00:15:00,
2013-04-19 20:16:00,66.2,60.2,29.55,SSE,153,4.0,9.0,81,0.00,,,0.00,Wunderground v.1.15,2013-04-20 00:16:00,
2013-04-19 20:19:00,66.1,60.1,29.55,ESE,117,2.0,2.0,81,0.00,,,0.00,Wunderground v.1.15,2013-04-20 00:19:00,
2013-04-19 20:20:00,66.1,60.1,29.55,SE,144,6.0,7.0,81,0.00,,,0.00,Wunderground v.1.15,2013-04-20 00:20:00,
2013-04-19 20:23:00,66.0,60.0,29.54,ESE,121,4.0,9.0,81,0.00,,,0.00,Wunderground v.1.15,2013-04-20 00:23:00,
2013-04-19 20:24:00,66.0,60.0,29.54,SW,235,6.0,9.0,81,0.00,,,0.00,Wunderground v.1.15,2013-04-20 00:24:00,
2013-04-19 20:26:00,65.9,59.9,29.54,South,178,4.0,9.0,81,0.00,,,0.00,Wunderground v.1.15,2013-04-20 00:26:00,
2013-04-19 20:27:00,65.9,59.9,29.54,SE,145,4.0,9.0,81,0.00,,,0.00,Wunderground v.1.15,2013-04-20 00:27:00,
2013-04-19 20:28:00,65.9,59.9,29.53,East,84,11.0,11.0,81,0.00,,,0.00,Wunderground v.1.15,2013-04-20 00:28:00,
2013-04-19 20:32:00,65.8,60.2,29.53,East,86,10.0,10.0,82,0.00,,,0.00,Wunderground v.1.15,2013-04-20 00:32:00,
2013-04-19 20:35:00,65.8,60.2,29.54,ESE,112,2.0,10.0,82,0.00,,,0.00,Wunderground v.1.15,2013-04-20 00:35:00,
2013-04-19 20:38:00,65.8,60.2,29.53,SSW,194,1.0,12.0,82,0.00,,,0.00,Wunderground v.1.15,2013-04-20 00:38:00,
2013-04-19 20:40:00,65.7,60.1,29.53,East,101,3.0,9.0,82,0.00,,,0.00,Wunderground v.1.15,2013-04-20 00:40:00,
2013-04-19 20:41:00,65.7,60.1,29.53,SSE,161,9.0,9.0,82,0.00,,,0.00,Wunderground v.1.15,2013-04-20 00:41:00,
2013-04-19 20:45:00,65.5,59.9,29.53,SSE,165,2.0,9.0,82,0.00,,,0.00,Wunderground v.1.15,2013-04-20 00:45:00,
2013-04-19 20:46:00,65.5,59.9,29.53,SW,220,0.0,9.0,82,0.00,,,0.00,Wunderground v.1.15,2013-04-20 00:46:00,
2013-04-19 20:47:00,65.5,59.9,29.53,South,189,7.0,9.0,82,0.00,,,0.00,Wunderground v.1.15,2013-04-20 00:47:00,
2013-04-19 20:50:00,65.5,59.9,29.53,SSE,160,2.0,5.0,82,0.00,,,0.00,Wunderground v.1.15,2013-04-20 00:50:00,
2013-04-19 20:51:00,65.4,59.8,29.52,SE,138,8.0,8.0,82,0.00,,,0.00,Wunderground v.1.15,2013-04-20 00:51:00,
2013-04-19 20:52:00,65.4,59.8,29.52,SSE,149,3.0,10.0,82,0.00,,,0.00,Wunderground v.1.15,2013-04-20 00:52:00,
2013-04-19 20:54:00,65.4,59.8,29.53,SSE,167,4.0,10.0,82,0.00,,,0.00,Wunderground v.1.15,2013-04-20 00:54:00,
2013-04-19 20:56:00,65.4,59.8,29.53,East,94,5.0,10.0,82,0.00,,,0.00,Wunderground v.1.15,2013-04-20 00:56:00,
2013-04-19 20:58:00,65.4,59.8,29.53,SE,131,5.0,10.0,82,0.00,,,0.00,Wunderground v.1.15,2013-04-20 00:58:00,
2013-04-19 21:01:00,65.5,59.9,29.53,ENE,69,9.0,13.0,82,0.00,,,0.00,Wunderground v.1.15,2013-04-20 01:01:00,
2013-04-19 21:02:00,65.5,59.9,29.53,SE,141,4.0,13.0,82,0.00,,,0.00,Wunderground v.1.15,2013-04-20 01:02:00,
2013-04-19 21:03:00,65.5,59.9,29.53,SE,126,2.0,13.0,82,0.00,,,0.00,Wunderground v.1.15,2013-04-20 01:03:00,
2013-04-19 21:04:00,65.6,60.0,29.53,South,187,2.0,13.0,82,0.00,,,0.00,Wunderground v.1.15,2013-04-20 01:04:00,
2013-04-19 21:07:00,65.6,60.0,29.53,SSW,198,8.0,13.0,82,0.00,,,0.00,Wunderground v.1.15,2013-04-20 01:07:00,
2013-04-19 21:08:00,65.6,60.0,29.53,ESE,116,8.0,13.0,82,0.00,,,0.00,Wunderground v.1.15,2013-04-20 01:08:00,
2013-04-19 21:09:00,65.6,60.0,29.54,South,172,4.0,6.0,82,0.00,,,0.00,Wunderground v.1.15,2013-04-20 01:09:00,
2013-04-19 21:10:00,65.6,60.0,29.54,NW,323,9.0,9.0,82,0.00,,,0.00,Wunderground v.1.15,2013-04-20 01:10:00,
2013-04-19 21:13:00,65.5,60.5,29.54,West,265,2.0,9.0,84,0.00,,,0.00,Wunderground v.1.15,2013-04-20 01:13:00,
2013-04-19 21:14:00,65.4,60.4,29.54,SSE,157,5.0,9.0,84,0.00,,,0.00,Wunderground v.1.15,2013-04-20 01:14:00,
2013-04-19 21:15:00,65.2,60.6,29.53,East,85,7.0,9.0,85,0.00,,,0.00,Wunderground v.1.15,2013-04-20 01:15:00,
2013-04-19 21:19:00,64.9,60.6,29.53,South,177,4.0,5.0,86,0.00,,,0.00,Wunderground v.1.15,2013-04-20 01:19:00,
2013-04-19 21:20:00,64.8,60.5,29.53,SSE,167,7.0,9.0,86,0.00,,,0.00,Wunderground v.1.15,2013-04-20 01:20:00,
2013-04-19 21:23:00,64.6,60.3,29.54,SE,127,2.0,11.0,86,0.00,,,0.00,Wunderground v.1.15,2013-04-20 01:23:00,
2013-04-19 21:25:00,64.6,60.3,29.54,SE,146,6.0,11.0,86,0.00,,,0.00,Wunderground v.1.15,2013-04-20 01:25:00,
2013-04-19 21:26:00,64.6,60.3,29.53,SSE,148,5.0,11.0,86,0.00,,,0.00,Wunderground v.1.15,2013-04-20 01:26:00,
2013-04-19 21:29:00,64.7,60.4,29.54,SE,130,2.0,5.0,86,0.00,,,0.00,Wunderground v.1.15,2013-04-20 01:29:00,
2013-04-19 21:30:00,64.7,60.4,29.54,South,170,4.0,5.0,86,0.00,,,0.00,Wunderground v.1.15,2013-04-20 01:30:00,
2013-04-19 21:31:00,64.7,60.4,29.54,South,169,5.0,8.0,86,0.00,,,0.00,Wunderground v.1.15,2013-04-20 01:31:00,
2013-04-19 21:32:00,64.7,60.4,29.54,South,171,1.0,8.0,86,0.00,,,0.00,Wunderground v.1.15,2013-04-20 01:32:00,
2013-04-19 21:35:00,64.8,60.5,29.55,SSE,167,3.0,12.0,86,0.00,,,0.00,Wunderground v.1.15,2013-04-20 01:35:00,
2013-04-19 21:37:00,64.8,60.5,29.56,NNE,19,2.0,12.0,86,0.00,,,0.00,Wunderground v.1.15,2013-04-20 01:37:00,
2013-04-19 21:38:00,64.9,60.6,29.56,WSW,247,8.0,12.0,86,0.00,,,0.00,Wunderground v.1.15,2013-04-20 01:38:00,
2013-04-19 21:41:00,64.9,60.6,29.59,SW,222,11.0,11.0,86,0.00,,,0.00,Wunderground v.1.15,2013-04-20 01:41:00,
2013-04-19 21:43:00,63.2,55.1,29.59,West,263,5.0,18.0,75,0.00,,,0.00,Wunderground v.1.15,2013-04-20 01:43:00,
2013-04-19 21:44:00,62.0,54.0,29.59,WSW,255,7.0,18.0,75,0.00,,,0.00,Wunderground v.1.15,2013-04-20 01:44:00,
2013-04-19 21:46:00,59.7,53.2,29.61,WNW,288,4.0,18.0,79,0.00,,,0.00,Wunderground v.1.15,2013-04-20 01:46:00,
2013-04-19 21:48:00,58.5,52.4,29.61,North,355,1.0,18.0,80,2.29,,,0.04,Wunderground v.1.15,2013-04-20 01:48:00,
2013-04-19 21:49:00,58.2,52.4,29.61,NNW,348,0.0,6.0,81,5.19,,,0.07,Wunderground v.1.15,2013-04-20 01:49:00,
2013-04-19 21:51:00,57.1,52.3,29.60,NW,313,0.0,6.0,84,4.11,,,0.17,Wunderground v.1.15,2013-04-20 01:51:00,
2013-04-19 21:53:00,56.3,52.2,29.62,West,271,3.0,7.0,86,0.87,,,0.20,Wunderground v.1.15,2013-04-20 01:53:00,
2013-04-19 21:54:00,55.6,51.5,29.63,WNW,292,11.0,11.0,86,0.51,,,0.21,Wunderground v.1.15,2013-04-20 01:54:00,
2013-04-19 21:55:00,54.8,50.7,29.64,NW,320,7.0,11.0,86,1.04,,,0.23,Wunderground v.1.15,2013-04-20 01:55:00,
2013-04-19 21:56:00,54.6,50.5,29.64,West,273,5.0,11.0,86,2.80,,,0.25,Wunderground v.1.15,2013-04-20 01:56:00,
2013-04-19 21:58:00,52.9,48.8,29.65,North,355,4.0,14.0,86,1.65,,,0.35,Wunderground v.1.15,2013-04-20 01:58:00,
2013-04-19 21:59:00,52.4,48.6,29.65,NW,313,5.0,7.0,87,1.00,,,0.36,Wunderground v.1.15,2013-04-20 01:59:00,
2013-04-19 22:00:00,51.8,48.1,29.65,ENE,63,3.0,9.0,87,0.97,,,0.39,Wunderground v.1.15,2013-04-20 02:00:00,
2013-04-19 22:03:00,50.8,47.7,29.65,West,280,3.0,9.0,89,0.76,,,0.44,Wunderground v.1.15,2013-04-20 02:03:00,
2013-04-19 22:04:00,50.6,47.5,29.66,West,280,2.0,9.0,89,0.49,,,0.45,Wunderground v.1.15,2013-04-20 02:04:00,
2013-04-19 22:05:00,50.1,47.3,29.67,West,281,8.0,9.0,90,0.91,,,0.47,Wunderground v.1.15,2013-04-20 02:05:00,
2013-04-19 22:08:00,49.5,47.0,29.66,North,360,0.0,9.0,91,1.05,,,0.53,Wunderground v.1.15,2013-04-20 02:08:00,
2013-04-19 22:09:00,49.4,46.9,29.67,WSW,251,3.0,4.0,91,1.00,,,0.55,Wunderground v.1.15,2013-04-20 02:09:00,
2013-04-19 22:11:00,49.1,46.6,29.67,NNE,12,4.0,4.0,91,0.54,,,0.57,Wunderground v.1.15,2013-04-20 02:11:00,
2013-04-19 22:13:00,48.7,46.2,29.67,NW,312,2.0,4.0,91,0.61,,,0.59,Wunderground v.1.15,2013-04-20 02:13:00,
2013-04-19 22:15:00,48.4,46.2,29.67,SW,235,2.0,4.0,92,0.40,,,0.61,Wunderground v.1.15,2013-04-20 02:15:00,
2013-04-19 22:17:00,48.2,46.0,29.67,WNW,296,4.0,4.0,92,0.40,,,0.62,Wunderground v.1.15,2013-04-20 02:17:00,
2013-04-19 22:19:00,48.0,46.1,29.67,West,271,9.0,9.0,93,0.38,,,0.64,Wunderground v.1.15,2013-04-20 02:19:00,
2013-04-19 22:20:00,47.8,45.9,29.67,WSW,254,3.0,9.0,93,0.26,,,0.64,Wunderground v.1.15,2013-04-20 02:20:00,
2013-04-19 22:22:00,47.7,45.8,29.68,WNW,286,5.0,9.0,93,0.40,,,0.66,Wunderground v.1.15,2013-04-20 02:22:00,
2013-04-19 22:25:00,47.6,46.0,29.67,West,264,3.0,9.0,94,0.20,,,0.67,Wunderground v.1.15,2013-04-20 02:25:00,
2013-04-19 22:26:00,47.5,45.6,29.67,NW,317,4.0,9.0,93,0.20,,,0.67,Wunderground v.1.15,2013-04-20 02:26:00,
2013-04-19 22:27:00,47.4,45.5,29.67,SW,232,3.0,9.0,93,0.30,,,0.67,Wunderground v.1.15,2013-04-20 02:27:00,
2013-04-19 22:28:00,47.3,45.7,29.67,WNW,290,2.0,9.0,94,0.30,,,0.68,Wunderground v.1.15,2013-04-20 02:28:00,
2013-04-19 22:31:00,47.2,45.6,29.67,NW,304,2.0,4.0,94,0.19,,,0.69,Wunderground v.1.15,2013-04-20 02:31:00,
2013-04-19 22:32:00,47.1,45.5,29.67,WNW,288,2.0,4.0,94,0.31,,,0.70,Wunderground v.1.15,2013-04-20 02:32:00,
2013-04-19 22:34:00,47.0,45.4,29.67,WNW,291,4.0,4.0,94,0.29,,,0.70,Wunderground v.1.15,2013-04-20 02:34:00,
2013-04-19 22:35:00,47.0,45.4,29.68,NW,306,2.0,4.0,94,0.22,,,0.71,Wunderground v.1.15,2013-04-20 02:35:00,
2013-04-19 22:36:00,47.0,45.4,29.68,WSW,240,1.0,4.0,94,0.22,,,0.71,Wunderground v.1.15,2013-04-20 02:36:00,
2013-04-19 22:39:00,46.9,45.3,29.68,NW,323,6.0,6.0,94,0.17,,,0.72,Wunderground v.1.15,2013-04-20 02:39:00,
2013-04-19 22:41:00,46.7,45.1,29.68,West,273,5.0,6.0,94,0.17,,,0.72,Wunderground v.1.15,2013-04-20 02:41:00,
2013-04-19 22:43:00,46.6,45.0,29.69,West,277,5.0,6.0,94,0.13,,,0.72,Wunderground v.1.15,2013-04-20 02:43:00,
2013-04-19 22:45:00,46.5,44.9,29.70,WNW,288,2.0,6.0,94,0.09,,,0.72,Wunderground v.1.15,2013-04-20 02:45:00,
2013-04-19 22:46:00,46.5,44.9,29.70,WNW,284,4.0,6.0,94,0.07,,,0.72,Wunderground v.1.15,2013-04-20 02:46:00,
2013-04-19 22:47:00,46.4,44.8,29.70,NW,314,3.0,6.0,94,0.07,,,0.73,Wunderground v.1.15,2013-04-20 02:47:00,
2013-04-19 22:49:00,46.3,44.9,29.70,WNW,290,4.0,4.0,95,0.24,,,0.73,Wunderground v.1.15,2013-04-20 02:49:00,
2013-04-19 22:50:00,46.3,44.7,29.70,WNW,300,3.0,8.0,94,0.24,,,0.74,Wunderground v.1.15,2013-04-20 02:50:00,
2013-04-19 22:52:00,46.2,44.8,29.70,NW,312,1.0,8.0,95,0.24,,,0.74,Wunderground v.1.15,2013-04-20 02:52:00,
2013-04-19 22:53:00,46.2,44.8,29.70,West,279,2.0,8.0,95,0.20,,,0.75,Wunderground v.1.15,2013-04-20 02:53:00,
2013-04-19 22:54:00,46.1,44.7,29.70,NW,313,3.0,8.0,95,0.38,,,0.76,Wunderground v.1.15,2013-04-20 02:54:00,
2013-04-19 22:57:00,46.0,44.6,29.70,West,267,2.0,8.0,95,0.16,,,0.76,Wunderground v.1.15,2013-04-20 02:57:00,
2013-04-19 22:59:00,46.0,44.6,29.72,WSW,248,3.0,3.0,95,0.16,,,0.77,Wunderground v.1.15,2013-04-20 02:59:00,
2013-04-19 23:00:00,45.9,44.5,29.73,NW,323,6.0,6.0,95,0.37,,,0.78,Wunderground v.1.15,2013-04-20 03:00:00,
2013-04-19 23:03:00,45.4,43.8,29.72,WNW,288,0.0,8.0,94,0.20,,,0.79,Wunderground v.1.15,2013-04-20 03:03:00,
2013-04-19 23:04:00,45.2,43.6,29.71,NNE,27,2.0,8.0,94,0.51,,,0.80,Wunderground v.1.15,2013-04-20 03:04:00,
2013-04-19 23:05:00,45.2,43.6,29.71,WNW,298,2.0,8.0,94,0.46,,,0.80,Wunderground v.1.15,2013-04-20 03:05:00,
2013-04-19 23:06:00,45.1,43.5,29.70,West,267,4.0,8.0,94,0.22,,,0.80,Wunderground v.1.15,2013-04-20 03:06:00,
2013-04-19 23:10:00,44.7,43.1,29.71,West,273,1.0,4.0,94,0.30,,,0.82,Wunderground v.1.15,2013-04-20 03:10:00,
2013-04-19 23:11:00,44.6,43.0,29.71,NNW,338,0.0,4.0,94,0.22,,,0.82,Wunderground v.1.15,2013-04-20 03:11:00,
2013-04-19 23:13:00,44.4,42.8,29.71,WSW,253,1.0,4.0,94,0.14,,,0.83,Wunderground v.1.15,2013-04-20 03:13:00,
2013-04-19 23:15:00,44.4,42.8,29.71,WSW,253,2.0,4.0,94,0.24,,,0.83,Wunderground v.1.15,2013-04-20 03:15:00,
2013-04-19 23:16:00,44.4,42.8,29.71,WNW,285,0.0,4.0,94,0.24,,,0.84,Wunderground v.1.15,2013-04-20 03:16:00,
2013-04-19 23:17:00,44.3,42.7,29.72,WNW,288,3.0,4.0,94,0.24,,,0.84,Wunderground v.1.15,2013-04-20 03:17:00,
2013-04-19 23:19:00,44.3,43.0,29.72,WNW,292,0.0,2.0,95,0.17,,,0.85,Wunderground v.1.15,2013-04-20 03:19:00,
2013-04-19 23:21:00,44.2,42.9,29.72,NW,308,2.0,5.0,95,0.22,,,0.85,Wunderground v.1.15,2013-04-20 03:21:00,
2013-04-19 23:22:00,44.2,42.9,29.72,West,273,0.0,5.0,95,0.22,,,0.86,Wunderground v.1.15,2013-04-20 03:22:00,
2013-04-19 23:23:00,44.2,42.9,29.72,North,5,2.0,5.0,95,0.27,,,0.86,Wunderground v.1.15,2013-04-20 03:23:00,
2013-04-19 23:24:00,44.1,42.8,29.72,NW,318,1.0,5.0,95,0.27,,,0.87,Wunderground v.1.15,2013-04-20 03:24:00,
2013-04-19 23:25:00,44.1,42.8,29.72,SW,232,0.0,5.0,95,0.27,,,0.87,Wunderground v.1.15,2013-04-20 03:25:00,
2013-04-19 23:26:00,44.1,42.8,29.72,SW,232,0.0,5.0,95,0.23,,,0.88,Wunderground v.1.15,2013-04-20 03:26:00,
2013-04-19 23:28:00,44.1,42.8,29.71,NNE,21,2.0,5.0,95,0.23,,,0.88,Wunderground v.1.15,2013-04-20 03:28:00,
2013-04-19 23:29:00,44.1,42.8,29.71,NNE,19,2.0,2.0,95,0.22,,,0.88,Wunderground v.1.15,2013-04-20 03:29:00,
2013-04-19 23:31:00,44.0,42.7,29.70,North,355,1.0,3.0,95,0.31,,,0.90,Wunderground v.1.15,2013-04-20 03:31:00,
2013-04-19 23:32:00,44.0,42.7,29.70,North,355,2.0,3.0,95,0.31,,,0.90,Wunderground v.1.15,2013-04-20 03:32:00,
2013-04-19 23:36:00,43.8,42.5,29.70,NE,51,2.0,4.0,95,0.17,,,0.91,Wunderground v.1.15,2013-04-20 03:36:00,
2013-04-19 23:37:00,43.8,42.5,29.70,ENE,65,0.0,4.0,95,0.17,,,0.91,Wunderground v.1.15,2013-04-20 03:37:00,
2013-04-19 23:38:00,43.7,42.4,29.70,NNE,23,1.0,4.0,95,0.23,,,0.92,Wunderground v.1.15,2013-04-20 03:38:00,
2013-04-19 23:42:00,43.5,42.2,29.70,NE,55,5.0,7.0,95,0.13,,,0.93,Wunderground v.1.15,2013-04-20 03:42:00,
2013-04-19 23:43:00,43.4,42.1,29.70,West,266,2.0,7.0,95,0.13,,,0.93,Wunderground v.1.15,2013-04-20 03:43:00,
2013-04-19 23:44:00,43.3,42.0,29.72,WSW,247,0.0,7.0,95,0.33,,,0.94,Wunderground v.1.15,2013-04-20 03:44:00,
2013-04-19 23:45:00,43.3,42.0,29.72,WSW,247,0.0,7.0,95,0.33,,,0.94,Wunderground v.1.15,2013-04-20 03:45:00,
2013-04-19 23:48:00,43.2,41.9,29.71,ENE,70,0.0,7.0,95,0.17,,,0.95,Wunderground v.1.15,2013-04-20 03:48:00,
2013-04-19 23:49:00,43.2,41.9,29.71,ENE,69,0.0,2.0,95,0.17,,,0.95,Wunderground v.1.15,2013-04-20 03:49:00,
2013-04-19 23:50:00,43.2,41.9,29.71,SSE,165,0.0,2.0,95,0.22,,,0.95,Wunderground v.1.15,2013-04-20 03:50:00,
2013-04-19 23:53:00,43.2,41.9,29.71,WNW,294,0.0,2.0,95,0.19,,,0.96,Wunderground v.1.15,2013-04-20 03:53:00,
2013-04-19 23:54:00,43.2,41.9,29.71,WNW,294,0.0,2.0,95,0.15,,,0.97,Wunderground v.1.15,2013-04-20 03:54:00,
2013-04-19 23:55:00,43.1,41.8,29.70,WNW,294,1.0,2.0,95,0.15,,,0.97,Wunderground v.1.15,2013-04-20 03:55:00,
2013-04-19 23:56:00,43.1,41.8,29.70,WNW,296,3.0,3.0,95,0.15,,,0.97,Wunderground v.1.15,2013-04-20 03:56:00,
2013-04-19 23:57:00,43.1,41.8,29.70,NW,305,2.0,3.0,95,0.18,,,0.98,Wunderground v.1.15,2013-04-20 03:57:00,